CloseHelpProblem

Leadville Trail 100

08/15/09


PlBibName RepresentingAge Division Interval TimeTime BackTotal Time
12Lance ARMSTRONGASPEN COM300:26:40.217+0:0003:49:55.808
26Max TAAMSNOWMASS VILLAGE COM200:28:23.858+1:43.604:17:35.208
31Dave WIENSGUNNISON COM400:28:37.137+1:56.904:01:43.959
41504Alex GRANTSALT LAKE CITY UTM200:29:29.843+2:49.604:08:15.018
51464Jason TULLOUSTUSCON AZM300:29:48.709+3:08.404:25:18.728
61517Len ZANNICARBONDALE COM300:30:06.814+3:26.504:11:40.895
7922Mike HOGANLOUISVILLE COM400:30:16.946+3:36.704:27:28.272
841Ward BAKERBOULDER COM300:31:09.527+4:29.304:33:56.027
918Kent MCNEILLBELLEVUE NEM300:31:11.010+4:30.704:30:30.364
101368Eric SALSTRANDPHOENIX AZM300:31:15.395+4:35.104:27:24.921
111515Matt SHRIVERDURANGO COM200:31:35.112+4:54.804:15:42.893
1210Kimo SEYMOURTEMPE AZM400:31:48.807+5:08.504:33:39.284
13438Bryson PERRYSANDY UTM300:32:09.103+5:28.804:36:17.422
144Ethan PASSANTCRESTED BUTTE COM300:32:23.244+5:43.004:33:41.573
15966Marc WIMMERPROVIDENCE UTM300:32:30.202+5:49.905:00:57.846
1681John CALLAHANASPEN COM400:32:34.881+5:54.605:09:36.644
17157Mike MAPLEASPEN COM500:32:44.825+6:04.605:09:50.686
181020Scott MCCALMONBOULDER COM300:32:48.512+6:08.204:49:41.332
1940Lance SCHAMBERGERLEADVILLE COM300:32:51.933+6:11.705:02:29.057
2055Dan KNIGHTCOLORADO SPRINGS COM400:32:59.886+6:19.605:00:34.495
218Jim LEHMANCOLORADO SPRINGS COM400:33:13.726+6:33.504:45:22.452
2249Steve MAROLTASPEN COM400:33:15.753+6:35.505:44:16.300
2312Chuck GIBSONPROVO UTM300:33:22.563+6:42.304:45:15.479
241370Matt SNIEGOWSKIPHOENIX AZM200:33:29.852+6:49.605:12:44.729
251518Rebecca RUSCHKETCHUM IDF400:33:30.704+6:50.404:49:31.939
261508Bryan ALDERSBOULDER COM200:33:32.465+6:52.204:45:30.732
271373Steven HARPCOLORADO SPRINGS COM200:33:35.175+6:54.905:03:15.181
281381Cary MEADCHEYENNE WYM400:33:37.539+6:57.305:44:09.594
29441Brandon PERRYDRAPER UTM200:33:39.146+6:58.905:25:44.506
30149Mike SUTTERBOULDER COM400:33:40.334+7:00.105:08:41.678
311444Mark STALLONEBERKELEY HEIGHTS NJM400:33:42.192+7:01.905:45:35.720
3211Jake RUBELTTUSCON AZM300:33:42.614+7:02.304:35:21.096
3377Daniel MURRAYTELLURIDE COM300:33:46.149+7:05.904:56:40.237
34277Kervin QUINONESCOLORADO SPRINGS COM300:33:50.283+7:10.004:53:42.113
351367Andy MCSORLEYLAGUNA BEACH CAM300:33:54.453+7:14.205:19:48.701
36100Blake MOURERDENVER COM300:33:54.738+7:14.505:19:27.503
371483Troy HIATTGUNNISON COM300:33:55.057+7:14.805:16:15.087
381310Chris LATHAMFLAGSTAFF AZM300:33:59.391+7:19.105:06:07.911
391473Gerry CODY, JR.HOLLYWOOD CAM300:34:01.173+7:20.904:46:16.844
40329Mark BARRETTVICTORIA MNM400:34:03.723+7:23.505:07:55.736
411053David RENVOISEWELLESLEY MAM200:34:03.771+7:23.504:45:42.398
4228Mark GOUGECOLORADO SPRINGS COM400:34:04.470+7:24.204:55:16.278
433Manuel PRADOLAKE FOREST CAM200:34:08.192+7:27.904:25:14.374
4414Garth PROSSERDUBLIN OHM300:34:08.353+7:28.104:56:07.448
45153Brad COBBLOOKOUT MTN TNM400:34:09.766+7:29.505:02:48.628
4621Yuki SAITODENVER COM200:34:16.661+7:36.404:37:56.108
4731Cannon SHOCKLEYLEADVILLE COM300:34:18.500+7:38.204:50:35.267
4824Ryan HAMILTONBOULDER COM300:34:24.212+7:43.905:26:27.918
49295Campbell LEVYASPEN COM200:34:25.248+7:45.005:06:12.691
50817Kent MCGREWFRISCO COM400:34:27.162+7:46.906:02:49.559
5147Steven YORESANTA FE NMM400:34:30.294+7:50.004:57:05.544
52363David JORGENSELBERT COM300:34:30.884+7:50.605:43:45.321
53893Bryant CHRISTENSENOREM UTM400:34:34.029+7:53.805:11:04.646
5435Chris HOLLEYSPANISH FORK UTM300:34:35.562+7:55.304:38:16.460
5565Todd MURRAYCOLORADO SPRINGS COM400:34:36.641+7:56.405:07:39.371
5674Mathew DAVISSHREVEPORT LAM300:34:36.804+7:56.504:42:49.924
57907Doug KEISERCEDAR FALLS IAM400:34:38.522+7:58.305:18:05.866
581498Daniel SODERLINDBROOMFIELD COM200:34:40.005+7:59.705:25:48.284
59763Thomas KUBICEKFRIENDSWOOD TXM300:34:40.258+8:00.005:28:44.578
60912Jamie POGUEDRAPER UTSSM00:34:44.838+8:04.605:31:58.674
611166Michael MILLERDENVER COM300:34:45.094+8:04.805:13:59.149
6270Mike MAROLTASPEN COM400:34:52.823+8:12.605:01:32.826
63128Mark LANDECKHOUSTON TXM400:34:52.888+8:12.605:07:39.703
641516Dejay BIRTCHTUCSON AZSSM00:34:52.925+8:12.705:14:40.660
65293Robert MCGEESAN CLEMENTE CAM400:34:53.481+8:13.205:25:35.642
66923Thomas DOOLEYBOULDER COM400:34:57.757+8:17.504:46:13.133
6732Jarral RYTERGUNNISON COM400:35:00.502+8:20.204:55:55.776
68570Bill HERWIGCENTENNIAL COM500:35:02.082+8:21.805:07:47.149
69991Gabriel KECKSAN FRANCISCO CAM300:35:02.398+8:22.104:58:43.077
7045Adam STEPANOVICSANTA FE NMM200:35:02.602+8:22.305:32:09.911
71445Adam PLUMMERAVON COM300:35:03.671+8:23.404:39:48.477
7284David HASSINGERBOISE IDM400:35:05.068+8:24.805:13:08.495
731265Jody ELOVITZPARKER COM400:35:06.076+8:25.805:34:11.807
741361Larry DEWITT*COLORADO SPRINGS COM500:35:06.782+8:26.505:11:32.128
751171Ryan VANNESSDENVER COM300:35:07.927+8:27.705:19:15.676
761173Lynn LEEALBUQUERQUE NMM500:35:10.390+8:30.105:26:30.647
771048Amanda CAREYVICTOR IDF300:35:12.691+8:32.405:13:17.230
78982Brandon SMITHSPANISH FORK UTM300:35:12.976+8:32.705:13:21.647
791255Scott MCCLEMENTDARIEN ILM400:35:14.992+8:34.705:30:58.911
8095Andy FOXEVERGREEN COM500:35:15.258+8:35.005:19:30.810
81689Tyler HOLLANDFORT DEFIANCE AZM300:35:16.654+8:36.405:31:10.484
82896Conrad GUYMONOREM UTM400:35:17.428+8:37.205:31:25.934
83531Henry FISCHERLEADVILLE COM400:35:21.991+8:41.705:01:35.248
84582Stewart GOODWINPLEASANT GROVE UTM200:35:24.165+8:43.904:59:50.172
8563Dan DITTMERSHAKOPEE MNM300:35:25.448+8:45.204:56:12.379
86814Andrew BERGETBROOMFIELD COM300:35:25.636+8:45.405:19:30.048
87976Mike BESTASHLAND MOM300:35:27.119+8:46.905:09:46.866
88998Dylan NETTERDENVER COM300:35:30.889+8:50.605:06:30.320
89428James DIRKSENGUNNISON COM500:35:34.462+8:54.205:31:26.653
90478Jeff SUMSIONPARK CITY UTM400:35:34.522+8:54.305:26:02.858
91387Mark GLASGOWALPINE UTM400:35:34.788+8:54.505:39:57.595
921079David GRANTMARQUETTE MIM400:35:36.571+8:56.305:04:00.762
931405Dennis BARRETTRIVERTON UTM400:35:36.977+8:56.705:16:47.797
94804Thomas ENSIGNSCOTTSDALE AZM400:35:38.498+8:58.205:28:26.609
951351Andrew REEDPORTLAND ORM400:35:43.149+9:02.905:07:37.316
967Nate WHITMANLOS ANGELES CAM300:35:44.270+9:04.004:49:09.919
9734Peter TRAYLORFLAFSTAFF AZM300:35:44.787+9:04.504:55:40.900
9866Kenny JONESPROVO UTSSM00:35:45.363+9:05.105:06:16.982
991083Darin CARLMINTURN COM400:35:46.582+9:06.306:09:05.248
10020Bill MACFARLANEEDWARDS COM400:35:48.067+9:07.805:10:06.958
1011229Derik GEORGECOLORADO SPRINGS COM300:35:48.117+9:07.905:12:15.930
102378Tom FREEMANALPINE UTM400:35:48.313+9:08.005:57:50.779
103101Stephen MABRYCRESTED BUTTE COM400:35:48.868+9:08.605:28:59.814
104516James SELMANPORTLAND ORM300:35:52.688+9:12.404:49:54.520
105334David SCHEEFERCRESTED BUTTE COM500:35:54.355+9:14.105:43:18.953
106372David BOTTBUENA VISTA COSSM00:35:55.122+9:14.905:05:00.213
10778Brian WIENSLITTLETON COM400:35:55.195+9:14.905:13:14.347
1081010Richard GRABARITSHIGHLANDS RANCH COM400:35:56.028+9:15.805:07:42.065
10961Andrew YATESAUSTIN TXM400:35:59.701+9:19.405:06:10.869
11023Jeff WARDELLBOULDER COM400:35:59.899+9:19.604:56:22.426
111931Tony TORRANCEBOULDER COM300:36:00.438+9:20.205:14:48.448
112915Dan HUGHESLAWRENCE KSM400:36:01.148+9:20.905:43:49.177
1131098J. Ross HOLBROOKBRECKENRIDGE COM200:36:02.770+9:22.505:09:20.602
114383Lee JOHNSONALPINE UTM400:36:03.155+9:22.905:43:52.680
115362Mike MOHERLEADVILLE COM400:36:03.246+9:23.005:13:13.161
116274David WALKERBOULDER COM300:36:06.840+9:26.605:20:26.053
1171522Ryan SUTTERAVON COM300:36:07.695+9:27.405:05:04.060
11890Mark SMITHTHORTON COM500:36:11.644+9:31.405:15:22.178
119121Jon GIBANSASPEN COM500:36:14.408+9:34.105:28:18.870
120838Matt LUHNKETCHUM IDM400:36:15.037+9:34.804:58:33.860
1211330Justin HOBLETSAN DIEGO CAM300:36:16.381+9:36.105:36:25.710
122380Kent CARLSONTHORTON COM400:36:16.471+9:36.206:03:00.162
123287Brian FEDDEMALEADVILLE COM300:36:17.481+9:37.206:01:48.010
124906Eric THOMPSONBRECKENRIDGE COM300:36:18.357+9:38.105:08:24.791
12515Jim SILVERMANFLAGSTAFF AZM400:36:19.271+9:39.004:44:33.996
126902Thor LOECHELLLITTLETON COM300:36:19.694+9:39.405:44:23.537
12716Ted MACBLANEASPEN COM400:36:20.012+9:39.704:46:11.570
1281415Adam WEAVERPARKER COM300:36:20.680+9:40.405:26:02.927
129690Dawn FRENCH PASSANTCRESTED BUTTE COF300:36:21.060+9:40.805:35:50.039
130133Rich DIGERONIMODENVER COM300:36:22.121+9:41.905:29:08.657
131880James HURSTLOOKOUT MTN TNM400:36:22.559+9:42.305:59:54.661
1321319Kevin JOHANSENSALEM UTM500:36:23.370+9:43.105:57:03.560
13352Terry WICKLANDEVERGREEN COM400:36:23.537+9:43.305:19:39.819
134318Chris GRIFFOCHICO CAM200:36:23.987+9:43.705:34:16.803
1351385Peter BUTTPERTH WESTERN AUSTRALIAM200:36:24.903+9:44.604:49:25.821
136211Michael IDDINGSEVERGREEN COM400:36:28.847+9:48.605:40:52.194
137773Kevin LIMPACHOMAHA NEM300:36:30.446+9:50.204:57:08.659
138828Jeff VIERLINGDURANGO COM300:36:31.288+9:51.005:40:04.774
139624Joshua BLUMENGLEWOOD COM400:36:33.279+9:53.005:30:34.197
140156Jeff RHODESLONE TREE COM400:36:33.818+9:53.605:06:29.270
1411274Bobby NOYESBOULDER COM400:36:34.644+9:54.405:35:32.820
142154Steven RIGGLEGOLDEN COM500:36:38.061+9:57.805:15:27.994
1431600 SCHUSTER & WAGNERCharles Schuster, Karla WagnerTAN00:36:38.243+9:58.006:30:08.438
144238David GONZALESBETHESDA MDM400:36:40.515+10:00.206:03:19.129
14576Mark HERSHBERGERWILSON WYM500:36:43.199+10:02.904:56:48.480
1461006Ryan FISHSPRINGVILLE UTM400:36:43.234+10:03.006:18:01.792
147506Racer GIBSONPROVO UTM300:36:43.525+10:03.305:59:07.188
148204Stephen ROBERTS*RICO COM400:36:43.625+10:03.405:10:12.105
149909Rick SUNDERLAGEDRAPER UTSSM00:36:44.291+10:04.005:22:05.781
15093Bryan BUNCHAUSTIN TXM300:36:45.671+10:05.405:16:22.575
151140Dean CAHOWEVERGREEN COM500:36:47.237+10:07.005:31:09.843
152698Michael ARCHIBECKALBUQUERQUE NMM400:36:49.183+10:08.905:15:05.956
1531003Ed CHAUNERSALT LAKE CITY UTM500:36:50.870+10:10.605:05:44.525
154490Daniel FILELAKE CITY COM500:36:51.597+10:11.305:24:39.908
1551203Fred BACHERLOUISVILLE COM400:36:52.500+10:12.206:03:17.606
156933Tim DIFALCOROYAL OAK MIM300:36:53.258+10:13.005:14:05.308
157114Randy GUYMERHICKORY NCM400:36:53.278+10:13.005:18:12.681
158638Brandon FISHERCANBY ORM300:36:54.502+10:14.204:54:07.045
159297Marvin SANDOVALLEADVILLE COM300:36:56.397+10:16.105:15:03.253
160854Thomas COVINGTONCAVE CREEK AZM400:36:57.421+10:17.205:17:12.181
161600Jay LEWANDOWSKISANDY UTM400:37:00.030+10:19.805:19:38.811
1621029Mike GETTINGERGLENWOOD SPRINGS COM400:37:02.147+10:21.905:35:25.977
163793Chris LATSHAWDURANGO COM400:37:03.285+10:23.005:17:08.439
1641144Hank CAMPBELLATHENS OHM300:37:03.417+10:23.204:59:04.056
165539Calvin CAHOONPAYSON UTM300:37:08.207+10:27.906:07:34.371
166159Mike MCHARGUE*LEADVILLE COM400:37:08.735+10:28.505:23:02.034
1671076Dennis SCHUELERHICKORY HILLS ILM400:37:11.080+10:30.806:07:56.491
168730Carlos CARDONAMIAMI (FROM COSTA RICA) FLM400:37:11.669+10:31.405:34:21.848
169932Tom TORRANCEBOULDER COM300:37:15.046+10:34.805:07:40.851
170103Christopher BELLONALAKEWOOD COM300:37:15.195+10:34.905:08:20.668
17151Mike YOUNGOREM UTM400:37:15.926+10:35.705:00:38.159
1721501Roger STONESHIGHLANDS RANCH COM300:37:16.313+10:36.005:29:03.834
173325Jake KIRKPATRICKBOULDER COSSM00:37:18.398+10:38.105:22:16.057
174488Andy REEDCANMORE AB, CANADAM300:37:18.965+10:38.705:04:41.473
1751034Tim CROSSENGOLDEN COM500:37:19.692+10:39.405:39:16.880
176821Heath WEISBRODSAINT LOUIS PARK MNSSM00:37:21.663+10:41.405:52:07.714
1771168Todd ROBISONEDWARDS COM300:37:23.091+10:42.805:32:52.976
178646Jeff LAMBINGSAN DIEGO CAM400:37:23.598+10:43.305:27:05.095
179661Alex KOSSFLAGSTAFF AZM500:37:30.729+10:50.505:23:02.687
1801268Bradley HANNIGDAMMERON VALLEY UTM400:37:31.044+10:50.807:13:27.533
18159Wooch GRAFFHOUSTON TXM300:37:32.326+10:52.105:06:42.201
182265Ries ROBINSONALBUQUERQUE NMM400:37:32.567+10:52.305:44:14.315
183527Michael SCHEULLERKAYSVILLE UTM300:37:33.378+10:53.105:18:04.550
184437Will LEWISLEADVILLE COM200:37:34.445+10:54.205:25:36.341
185288Che OLIVEROREM UTM300:37:35.201+10:54.905:41:43.003
186439Zach TITTENSORHIGHLAND UTM300:37:35.679+10:55.404:58:11.040
187284Tyrone RIMBERTLEADVILLE COM300:37:35.941+10:55.705:27:41.139
1881113Derek SCOTTLITTLETON COM400:37:36.497+10:56.206:23:40.720
1891315Bob KELDERDURANGO COM400:37:37.229+10:57.006:00:06.130
190614Michael BRISOCEDENVER COM300:37:38.614+10:58.306:44:12.827
191762Phillip GRAHAMOREM UTM400:37:38.802+10:58.505:34:12.792
1921063Karl VIZMEGDRAPER UTM400:37:39.068+10:58.805:32:24.409
1931194Kc HOLLEYSPANISH FORK UTF300:37:41.782+11:01.505:20:59.421
194234Brent GOLDSTEINROCKVILLE MDM400:37:42.332+11:02.105:55:37.215
195427Ron HEWITTSONNANAIMO BC, CANADAM400:37:42.978+11:02.705:41:08.181
196306Chris ALBERSLEADVILLE COM300:37:45.065+11:04.805:51:21.407
19754Steve PETERSONLOUISVILLE COM400:37:45.336+11:05.105:09:52.825
1981228Andrew MILLERBUENA VISTA COM300:37:45.604+11:05.305:41:49.607
199606Jason WHITEDRAPER UTM300:37:45.803+11:05.505:47:58.373
2001183Chris HURSTLITTLE ROCK ARM300:37:46.613+11:06.305:23:43.361
201895Jilene MECHAMOREM UTF400:37:47.648+11:07.406:03:17.272
2021376Kirk NORDGRENCOLORADO SPRINGS COM200:37:47.787+11:07.505:20:47.415
203509Jon JAMESDRAPER UTM300:37:47.922+11:07.705:40:46.668
204268Jan BEARSANTA FE NMM500:37:47.992+11:07.705:44:54.292
2051148Gerald OLIVEREDWARDS COM300:37:51.209+11:10.905:20:55.904
206250Emily BROCKCOLUMBIA SCF300:37:53.075+11:12.805:51:28.397
2071214Jon FUGITTTRABUCO CANYON CAM300:37:56.619+11:16.405:33:58.446
2081169Gary HOLTLITTLETON COM300:37:56.916+11:16.605:09:40.989
2091459Darin BINIONGLENWOOD SPRINGS COSSM00:37:57.269+11:17.005:25:29.126
2101060Kevin CARTERCOLLEGE PARK MDM300:37:57.530+11:17.304:57:17.912
21197Vince ADAMSSPRINGVILLE UTM400:37:58.967+11:18.705:37:26.897
212757Patrick MCKIMCHARLOTTE NCM400:37:59.030+11:18.806:23:15.277
213551Michael SHEABASALT COM200:37:59.461+11:19.205:13:26.055
214975Douglas DAVISDEFIANCE MOM400:38:00.132+11:19.905:36:47.623
2151375Adam PULFORDCOLORADO SPRINGS COM200:38:01.355+11:21.105:03:29.226
216866Jeff HOLLANSWORTHHOT SPRINGS VILLAGE ARM200:38:02.614+11:22.306:14:11.499
217753Timothy SMITHMOBILE ALM300:38:03.405+11:23.105:35:12.736
218508Darren WIBERGPAYSON UTM300:38:03.728+11:23.506:08:57.444
219452Gary STERNINDIALANTIC FLM300:38:04.085+11:23.805:22:46.610
220635Gary BROWNCANMORE AB, CANADAM400:38:06.105+11:25.805:00:14.015
22194Mark WALLACEGOLDEN COM400:38:06.129+11:25.905:24:39.321
222645Highly FALKNERTEMPE AZM500:38:06.197+11:25.905:58:28.103
223302Tyler WATKINSLEADVILLE COM300:38:06.906+11:26.606:23:40.883
224212Sam ST.PIERREGOLDEN VALLEY MNM500:38:07.562+11:27.305:38:56.522
225257Rob ROWLEYKAYSVILLE UTM400:38:07.697+11:27.405:42:24.003
2261109Dennis KAISERDILLON COM600:38:08.003+11:27.705:58:56.456
2271000Wayne GORRYPAYSON AZM500:38:08.012+11:27.705:20:40.408
228267Kim BEARSANTA FE NMF500:38:11.778+11:31.506:21:25.299
2291488Jonathan LANGDENVER COM300:38:12.444+11:32.205:28:44.703
2301233Jordon CHANEYDALLAS TXM400:38:13.495+11:33.206:00:58.171
23179Ty HALLLEADVILLE COM400:38:14.359+11:34.105:12:00.268
2321122Steve BARNESBUENA VISTA COM500:38:17.280+11:37.006:16:57.697
233492Leon FETZERBRECKENRIDGE COM600:38:17.448+11:37.205:53:55.961
234801Frank DUMONTESTES PARK COM400:38:17.506+11:37.205:32:25.614
23530Charlie HAYESBOULDER COSSM00:38:17.644+11:37.404:50:34.553
236641Bryan REIDDALLAS TXM300:38:20.328+11:40.105:14:41.329
2371015Corey COPLEAFLAGSTAFF AZM300:38:20.361+11:40.105:25:50.814
2381136Rob BELZAFTON MNM400:38:20.957+11:40.706:01:57.492
239934Mike LOPERFIDOLOUISVILLE COSSM00:38:22.039+11:41.805:46:20.214
24029Mike DANAHERLITTLETON COM500:38:22.616+11:42.305:05:40.879
241971Michael BLADESEVERGREEN COM400:38:22.642+11:42.405:24:21.843
2421075Hayes FLYNNBIRMINGHAM ALM300:38:23.114+11:42.806:11:57.561
24353Phil SCHWEIZERCOLORADO SPRINGS COM500:38:23.918+11:43.705:17:45.743
24491Rich WEISGILBERT AZM300:38:24.392+11:44.105:29:45.404
245961Charles GREENPLEASANT GROVE UTM400:38:24.761+11:44.506:00:49.297
246738Todd CROKEGOLDEN COM300:38:27.454+11:47.206:10:14.367
247824Michael WILLIAMSCARSON CITY COM400:38:27.462+11:47.205:45:56.185
2481002Ellen GUTHRIESALT LAKE CITY UTF500:38:27.463+11:47.206:04:35.130
249336Mark KRASOVICHARVADA COM400:38:27.669+11:47.406:24:56.208
2501108Kevin ABELSAN DIEGO CASSM00:38:27.782+11:47.505:37:41.067
251379Mike LEWISPLEASANT GROVE UTM400:38:31.856+11:51.605:38:59.584
252579Paul BLATTERLITTLETON COM300:38:33.144+11:52.905:51:41.325
253758Brian PINKERTONWOODSIDE CAM400:38:34.461+11:54.205:54:25.838
2541153Philippe COURTOISVAIL COM500:38:35.997+11:55.705:50:22.835
255859Troy WALLERAMARILLO TXM400:38:36.170+11:55.905:54:02.880
2561172Tom KAMMEREREVERGREEN COM400:38:37.264+11:57.006:01:20.698
25750Zeppelin TITTENSORAMERICAN FORK UTM300:38:40.761+12:00.505:14:33.076
258580Dean BLATTERLITTLETON COM400:38:42.104+12:01.805:51:45.060
2591479Peter FRANCEWASHINGTON NHM400:38:44.113+12:03.805:29:37.467
2601158Joshua MAXIMONDENVER COM300:38:44.260+12:04.005:52:23.521
261453Steve LUFKININDIALANTIC FLM400:38:46.298+12:06.006:01:14.393
2621461Billy MASTERSONLOUISVILLE COM300:38:46.683+12:06.405:42:40.032
263742Mick MCDILLFORT COLLINS COM300:38:47.916+12:07.605:33:29.656
264328Bob HEINZENSHOREWOOD MNM300:38:49.750+12:09.506:15:22.257
2651391Daniel TEODORUBRECKENRIDGE COM300:38:49.841+12:09.605:09:30.378
2661175Scott GREENWOODPARK CITY UTSSM00:38:50.112+12:09.805:44:26.674
267860Michael WINEGARAMARILLO TXM300:38:50.443+12:10.206:12:32.952
268620Tim MCKEONALPINE UTSSM00:38:53.097+12:12.806:08:04.809
269867Robert LONGENECKERBRECKENRIDGE COM500:38:53.973+12:13.706:21:01.596
270436Clint MACARTHURCALGARY AB, CANADAM300:38:57.372+12:17.105:51:56.479
2711044Rob BORDANASPEN COM300:38:58.520+12:18.305:35:43.655
272818Rad SZULIMDPO AAM300:38:58.858+12:18.605:30:17.061
273126Jeffrey WILLIAMSAUSTIN TXM300:38:59.144+12:18.905:43:13.399
2741507Rick JOHNSONALPINE UTM400:38:59.693+12:19.405:54:35.936
2751298David PHELGARGREENSBORO NCM400:39:02.517+12:22.305:54:09.785
276573Kevin WEBERWESTMINSTER COM400:39:02.993+12:22.706:31:04.042
2771085Jacqui WOODCARBONDALE COF400:39:03.021+12:22.805:56:34.611
278713Trenton SMITHBOISE IDM400:39:04.738+12:24.506:23:22.200
279134David GRAUERNIWOT COM500:39:05.517+12:25.305:51:04.727
280959Lisa ROLLINSOREM UTF400:39:08.408+12:28.106:06:00.582
2811369Tod SMITHSCOTTSDALE AZM400:39:08.612+12:28.305:10:51.666
282455Marshall REEVESMELBOURNE BEACH FLM500:39:08.878+12:28.605:32:32.544
2831343Nate KVAMMELOUISVILLE KYM300:39:09.837+12:29.606:24:23.600
2841154Sydney LAHTINENMANDAN NDM400:39:10.824+12:30.605:28:43.701
2851465Nick WHITETUSCON AZM300:39:12.156+12:31.905:29:51.737
286280John ODLE*BOISE IDSSM00:39:13.175+12:32.906:29:30.928
287241Robert POGORELZFT. MORGAN COM500:39:14.373+12:34.106:51:34.288
288489Stephen CLARKMONUMENT COM400:39:15.211+12:34.906:00:06.343
289283Robert BROOMFIELD*FORT COLLINS COM300:39:16.703+12:36.406:50:59.868
290457Jason HANEYINDIALANTIC FLM200:39:16.710+12:36.405:36:29.231
291894Dusty HAFENOREM UTM200:39:18.963+12:38.705:47:21.845
2921254Stuart DUPUYAUSTIN TXM300:39:19.137+12:38.906:14:03.093
293456Eral BRADLEYMELBOURNE FLM300:39:19.241+12:39.005:32:41.639
2941487Jeff KLEMLAKEWOOD COM400:39:19.722+12:39.505:31:34.883
295875Tim KRANTZDIVIDE COM300:39:19.758+12:39.506:25:18.455
2961188Bob FINLEYARDMORE OKM300:39:19.790+12:39.506:03:09.499
297899Mike JOHNSONCEDAR FALLS IAM300:39:21.637+12:41.405:40:40.795
298148Sean HASSINGERBOISE IDM300:39:22.363+12:42.105:40:38.324
299473Colby WALLERWASHINGTON DCM300:39:26.069+12:45.805:20:13.580
3001283Gregg PATTISONLAKEVILLE MNM400:39:26.465+12:46.205:48:33.137
301891Rebecca CLEVELANDGREEN BAY WIF300:39:26.990+12:46.706:23:27.325
3021502Clay WILSONDALLAS TXM400:39:27.011+12:46.705:48:35.189
3031011Matthew BERDINELITTLETON COM300:39:28.876+12:48.605:45:44.906
304358Stan MAGEECANMORE AB, CANADAM500:39:29.265+12:49.005:03:29.880
305521Ned RULEDENVER COM400:39:31.066+12:50.805:28:56.706
3061204John LEWISBUDA TXM300:39:34.705+12:54.407:04:48.434
307423Robin DUTTONNANAIMO BC, CANADAM300:39:34.922+12:54.705:46:15.009
308692Mindi HOFFMASTERDENVER COF400:39:35.886+12:55.607:10:04.656
3091484David JOHNSONCOLORADO SPRINGS COM400:39:36.064+12:55.805:33:00.457
3101074Jeff HALLDENVER COM400:39:39.200+12:58.905:40:49.108
3111045Steve BUTLERKETCHUM IDM400:39:39.334+12:59.105:19:20.766
3121358James HERRERA*COLORADO SPRINGS COM400:39:41.139+13:00.905:41:35.520
313536Larry TUCKERPROVO UTM500:39:41.480+13:01.206:31:55.156
314659Bryan ANTOLFLAGSTAFF AZM300:39:41.627+13:01.405:52:35.333
315487Grant CLAYTONCOLORADO SPRINGS COM300:39:42.163+13:01.905:25:29.892
316553Stuart WALSWORTHDENVER COSSM00:39:42.818+13:02.605:46:07.239
317256Bob CROSSOREM UTM500:39:42.846+13:02.606:33:01.309
3181386Jonathan TISDALEAUGUSTA GAM300:39:42.899+13:02.605:58:38.258
319421Daniel SESSFORDVICTORIA BC, CANADAM200:39:43.820+13:03.604:57:16.847
320603Aaron WALKERTEMPE AZM300:39:45.027+13:04.805:22:06.609
3211089Garland THAYERMISSOULA MTM400:39:45.228+13:05.005:32:31.220
322136Colin TRUEMANCARBONDALE COM400:39:47.015+13:06.705:25:29.746
3231234Boyd WALLACEDALLAS TXM400:39:48.295+13:08.006:02:23.490
3241143Samuel ROBINSONMEMPHIS TNM200:39:49.555+13:09.305:43:56.091
325910Tony PARKINSONDRAPER UTM300:39:51.205+13:10.905:41:58.170
3261192Michael SCHMITNORMAN OKM400:39:51.519+13:11.306:15:39.193
327130Tab TOLLETTLOOKOUT MTN TNSSM00:39:52.646+13:12.405:42:00.813
3281017Philip REGNIERWESTMINSTER COM400:39:56.122+13:15.905:36:09.328
3291116Chris PATRICKFLOWER MOUND TXM400:39:56.360+13:16.106:53:22.483
330924Jamie KILCOYNELOUISVILLE COM300:39:56.527+13:16.305:34:10.332
3311013Jeff MILLERFLAGSTAFF AZM300:39:57.474+13:17.206:18:44.959
332566Jim SMITHVAIL COM400:39:57.569+13:17.305:55:29.978
3331114Chris PETERSONOMAHA NEM300:39:58.594+13:18.305:51:25.081
3341355David SPIVEYGREENWOOD INM400:40:00.329+13:20.106:13:44.205
335382Michael BIRCHDRAPER UTM400:40:00.479+13:20.206:16:34.517
3361505Matt OHRANSALT LAKE CITY UTM300:40:00.980+13:20.705:05:31.282
337335John HOLDERCRESTED BUTTE COM500:40:02.100+13:21.805:54:50.440
338619Marty SMUINALPINE UTM400:40:02.348+13:22.106:16:37.386
3391215Brian RIEBEFLAGSTAFF AZM400:40:04.586+13:24.305:46:21.789
340744Sam WANGDENVER COM200:40:05.371+13:25.105:41:16.964
341865Scott BELLDENVER COM200:40:06.268+13:26.006:04:13.878
3421032Shad HAMILTONLANDER WYM300:40:06.528+13:26.306:10:23.862
343207Ed POREMBACOLORADO SPRINGS COM500:40:09.128+13:28.906:16:40.495
344538Gale BERNHARDTLOVELAND COF500:40:10.675+13:30.406:02:42.297
345245Dave TWINAMLITTLETON COM400:40:10.851+13:30.606:27:53.995
3461174Peter EMERYSALT LAKE CITY UTSSM00:40:10.960+13:30.705:55:26.450
34787Jeffery DICKEYARLINGTON VAM300:40:11.090+13:30.805:01:19.419
348145Bruce KELLYLEADVILLE COM500:40:11.260+13:31.005:58:26.409
349233Scott ELLISJOHNSTOWN COM400:40:11.779+13:31.505:53:38.689
3501356Dwight HIBDONPARK CITY UTM500:40:12.725+13:32.505:53:56.601
351232Sheryl MILLERVAIL COF400:40:13.458+13:33.205:58:10.879
352332Chad MILLNEREDEN PRARIE MNM300:40:13.933+13:33.705:56:45.399
353236Gary MORRISNORTH POTOMAC MDM300:40:14.860+13:34.605:34:26.177
354792Shawn CANDELARIADURANGO COM400:40:15.260+13:35.005:44:33.730
355411Robert READERKIHEI HIM400:40:15.375+13:35.105:55:14.102
356939Douglas SCHNEEBECKALBUQUERQUE NMM400:40:16.339+13:36.105:39:58.883
357960Bill HEDERPLEASANT GROVE UTM400:40:18.322+13:38.106:21:52.865
3581139Brian BUELOWWINONA MNM400:40:18.957+13:38.706:22:52.938
359448Filip BABNICGRAND JUNCTION COM400:40:19.563+13:39.305:31:36.551
360266Gary JOHNSONEL PRADO NMM500:40:20.614+13:40.306:09:07.076
3611430Jody BAILEYLEESBURG VAM400:40:21.175+13:40.906:03:18.762
362474Jeff WUBOULDER COSSM00:40:21.679+13:41.406:07:42.871
3631031Alexis JONESHUNTINGTON BEACH CAF300:40:23.085+13:42.806:34:48.138
364152Dave GREENPLEASANT GROVE UTM400:40:23.446+13:43.205:55:27.079
365367Daniel WARDWELLSLEY MAM400:40:28.668+13:48.406:28:02.320
366142Matt MAIENZASANTA FE NMM300:40:28.686+13:48.405:25:32.977
367688Chris DONDLINGERFORT DEFIANCE AZM300:40:30.351+13:50.106:06:43.046
36885Sam CLARKDRAPER UTSSM00:40:31.173+13:50.905:31:58.675
369873Devora PETERSONGOLDEN COF500:40:32.682+13:52.407:16:46.334
3701115Denny RUNCKBIG SKY MTM500:40:33.716+13:53.405:58:37.563
371108Dan DURLANDCOLORADO SPRINGS COSSM00:40:35.792+13:55.505:18:03.716
3721334Ryan AMIRAULTDENVER COM200:40:36.102+13:55.805:22:32.168
373717Felix LEUNGSALT LAKE CITY UTM300:40:38.596+13:58.306:26:02.060
3741212Aaron BICKHAMLAS CRUCES NMM300:40:40.590+14:00.306:06:24.081
3751110Kathy ECKERTDENVER COF400:40:40.600+14:00.306:36:58.244
3761620 ORLINSKI & ORLINSKIDan Orlinski, Bevin OrlinskiTAN00:40:40.643+14:00.406:40:27.364
377625Lester PARDOEBOULDER COM300:40:41.053+14:00.806:05:29.239
378397Jay HEIMGLENWOOD SPRINGS COM400:40:41.509+14:01.205:39:09.034
37982Chris CARMICHAELCOLORADO SPRINGS COM400:40:45.280+14:05.005:44:48.335
380611Eric BRIGHTDRAPER UTM300:40:45.779+14:05.506:15:36.582
381354Scott CHENUEOAKLAND CAM300:40:47.205+14:06.906:09:20.414
382707Stig SOMMETORONTO ONT, CANADAM300:40:47.289+14:07.004:33:49.794
3831106John BODHANEENGLEWOOD COM400:40:49.341+14:09.106:46:17.619
3841150Linde SMITHSPRINGVILLE UTSSM00:40:49.736+14:09.506:28:00.572
385796Jonathan SANDBERGEXCELSIOR MNM500:40:51.296+14:11.005:58:56.300
3861019Jordan STOLLBOULDER COM500:40:52.055+14:11.806:21:07.874
387770Jack EDNEYPLEASANTON CAM400:40:52.494+14:12.205:31:22.903
388989Scott SUMMEYJACKSONVILLE FLM400:40:53.331+14:13.106:33:59.657
3891383Katie BRAZELTONVAIL COF400:40:55.398+14:15.105:49:47.126
3901618 WARNER & WARNERSerena Warner, Mark WarnerTAN00:40:56.068+14:15.806:30:11.407
3911047Charlie BROWNEVERGREEN COM500:40:57.061+14:16.806:37:54.783
392636Emilio DIPRETORODENVER COM300:40:57.925+14:17.706:04:38.217
39344Jason ASAYOREM UTM300:40:59.778+14:19.505:00:25.097
394746Craig NELSONSALIDA COM200:41:01.753+14:21.506:08:01.122
3951352Jeff DORWARTPLACITAS NMM400:41:02.367+14:22.106:11:39.824
396454Rodney REBERGAINESVILLE FLM400:41:04.140+14:23.905:55:50.256
397290Ryan POELMANOREM UTM300:41:04.506+14:24.206:01:34.174
398419Chris CASTILIANDENVER COM400:41:06.103+14:25.806:09:19.215
399648Jon KOLONPARK CITY UTM300:41:06.183+14:25.906:39:09.283
400203John HARRINGTON*ROCIADA NMM400:41:06.947+14:26.706:19:07.145
401239Jamie MALINVAIL COM400:41:07.178+14:26.906:03:27.721
4021088Mark FISCHERCARBONDALE COSSM00:41:09.209+14:28.906:07:21.080
4031197Shelly WILSONJACKSON MIF500:41:12.612+14:32.306:20:57.096
4041081Brian DAVIESBASALT COM400:41:14.203+14:33.906:27:11.561
405300Paul REICH*TELLURIDE COM500:41:14.685+14:34.406:04:15.480
406259Sterling MUDGELEADVILLE COM200:41:15.807+14:35.505:54:07.104
4071056Jerry MENSINGEROMAHA NEM300:41:16.739+14:36.506:02:32.333
408476Ken KREIDLBOULDER COM300:41:19.762+14:39.505:43:08.705
409353Jeff KUEHNPARK CITY UTM300:41:20.010+14:39.706:16:55.744
410994David NEBENDENVER COM400:41:20.651+14:40.405:31:42.935
411519Sarah MARCIKONISLONGMONT COF400:41:20.661+14:40.406:50:54.183
412348Mike HEMBDSACRAMENTO CAM400:41:20.841+14:40.606:38:16.603
413418Alexander EUCEDALEADVILLE COSSM00:41:21.356+14:41.106:43:25.803
4141469John ALFONDVAIL COM400:41:22.295+14:42.006:53:39.826
415944Beto BOGGIANOAUSTIN TXM400:41:23.213+14:42.906:25:16.391
4161120Matt LANGLEYLITTLETON COM300:41:23.806+14:43.506:03:05.752
417829Blake WARDDURANGO COM400:41:23.950+14:43.705:40:06.110
4181457Clark JOHNSONFRISCO COM400:41:25.536+14:45.306:01:56.099
419711Tyler SMITHBOISE IDM300:41:25.980+14:45.706:22:54.244
420617Natalie RYANDENVER COF300:41:26.936+14:46.705:48:06.010
421740Don BARTOWAURORA COM500:41:27.179+14:46.905:45:46.536
422610Tyler SEAMONSDRAPER UTM300:41:27.968+14:47.706:12:19.331
4231475Jocke DRAEKESASPEN COM300:41:29.417+14:49.206:22:06.834
424540Mike CALDWELLOGDEN UTM300:41:31.567+14:51.305:50:36.807
425360Kurt BACKOFENGLENWOOD SPRINGS COM300:41:31.735+14:51.505:46:29.134
42683Mike DURNERCOLORADO SPRINGS COM300:41:34.966+14:54.705:42:01.571
427404Aaron DAWSONWINSTON-SALEM NCM300:41:38.011+14:57.707:03:00.979
428850Peter RILEYDENVER COM400:41:38.437+14:58.205:29:41.469
429403Taylor ESSICKASHEVILLE NCM300:41:38.940+14:58.707:03:01.180
4301482David HAUCKCOLORADO SPRINGS COM400:41:39.097+14:58.806:37:47.938
4311263Mary DAVISDENVER COF400:41:39.160+14:58.907:09:51.373
432946Charles BISANTZAUSTIN TXM400:41:40.335+15:00.106:31:33.638
433616Julia KINTSCHDENVER COF300:41:40.931+15:00.706:13:52.846
4341186Cornelius MURRAYSANDY UTM300:41:41.230+15:01.006:06:56.801
435548Bob SACKGRAND ISLAND NEM600:41:41.803+15:01.505:46:35.727
436578Steve LIPSHERSILVERTHORNE COM400:41:42.134+15:01.905:36:34.567
437146Jim RUTBERGCOLORADO SPRINGS COM300:41:42.574+15:02.306:13:20.046
438704Tom SULLIVANRENO NVM400:41:42.603+15:02.306:24:53.321
439612Dan FILLIPIGOLDEN COM400:41:42.645+15:02.406:31:15.559
440574Scott ZARRETDENVER COM300:41:42.885+15:02.605:43:35.360
441727Rick SABATACOLORADO SPRINGS COM500:41:45.127+15:04.905:58:19.170
442575Michael RAMSEIERLITTLETON COM400:41:45.474+15:05.206:19:18.562
4431112David ROSENBAUMCOLORADO SPRINGS COM400:41:46.779+15:06.506:03:21.614
4441318Dan NELSONSPRINGVILLE UTM200:41:48.336+15:08.105:43:17.065
4451496Brian SELLSCOLORADO SPRINGS COM400:41:48.523+15:08.306:56:54.866
4461407Charles PARSONSMINNEAPOLIS MNM400:41:50.691+15:10.406:03:14.412
4471420Andrew KROESEDEEPHAVEN MNM200:41:53.171+15:12.905:32:12.169
448905Scott HURSTSANFORD NCM400:41:53.265+15:13.005:56:48.385
449407Jeff SOULIERKIHEI HIM500:41:53.999+15:13.705:37:54.673
4501206Keith SIMMONSSEGUIN TXM400:41:54.006+15:13.706:38:50.612
4511481Jamie HARRISDENVER COM400:41:54.225+15:14.006:24:39.457
4521111Julie BRUCKMANLITTLETON COF300:41:54.634+15:14.406:38:39.552
453202Michelle TORRES*WESTMINSTER COF400:41:54.721+15:14.506:32:04.482
454330Kevin GRAFFTCHANHASSEN MNM400:41:55.579+15:15.306:13:30.269
455812Roy TRICEDALLAS TXM500:41:56.486+15:16.206:31:35.076
456693Kathy HUDSONHIGHLAND VILLAGE TXF400:41:57.636+15:17.406:22:11.072
457877Stephen LEBOVITZWESTIN MAM400:42:00.585+15:20.305:50:24.716
4581425Martin MORUDMINNEAPOLIS MNM200:42:00.956+15:20.706:26:57.901
4591282Robert CROUCHANCHORAGE AKM500:42:01.534+15:21.306:33:47.886
460381Scott CARLSONTHORTON COM500:42:03.285+15:23.007:15:20.873
461735Russell HERRINGGREAT FALLS MTM300:42:03.429+15:23.207:00:27.111
462914Tom LIEBLLAWRENCE KSM400:42:03.887+15:23.606:07:21.705
463351Ryan WEISHAARSHELBY MTM300:42:05.488+15:25.207:07:27.608
464221Justin SNOW*BOULDER COM300:42:06.896+15:26.605:47:39.420
465320Macky MORRISBASALT COM300:42:07.113+15:26.805:56:08.676
466779Aaron HOLPPBIRMINGHAM ALM300:42:07.190+15:26.906:02:30.548
4671107Jerry HENCYLITTLETON COSSM00:42:07.215+15:26.906:03:33.873
468350Alan BRIDGESHELBY MTM500:42:07.798+15:27.507:34:23.123
469751Brandon LEEMOBILE ALSSM00:42:08.199+15:27.906:58:07.524
4701395William WHEELERLOUISVILLE COM400:42:08.338+15:28.106:13:04.233
4711608 HIRSCH & HIRSCHMark Hirsch, Jon HirschTAN00:42:08.653+15:28.406:21:12.603
472945Kyle RODEMACHERAUSTIN TXM300:42:08.726+15:28.505:51:20.995
473444Mark WOLFFLYONS COM400:42:08.778+15:28.506:49:43.439
474281Carol LAWHONYORBA LINDA CAF300:42:09.005+15:28.707:03:43.358
475244Roger MANKUSKETCHUM IDM500:42:09.619+15:29.406:23:36.212
476965Patrick COSTINSARATOGA SPRINGS UTM200:42:11.491+15:31.206:59:33.334
477626Kim PARDOEBOULDER COF400:42:12.376+15:32.106:49:32.121
4781012Joe CASLINFLAGSTAFF AZM300:42:12.509+15:32.206:13:29.746
479995Andrew JOHANNLONGMONT COM400:42:12.821+15:32.606:37:01.736
480913Whitney POGUEDRAPER UTF300:42:14.667+15:34.406:13:07.149
4811201James RUSKBERTHOUD COM400:42:16.402+15:36.107:01:36.932
482988Tim CHECKJACONSONVILLE FLM300:42:17.051+15:36.807:07:29.611
483983Sergio INIGUEZOAKDALE CAM300:42:18.198+15:37.906:24:20.446
4841264Amy OWENSDENVER COSSF00:42:18.282+15:38.006:39:49.153
485608Erik RIESSENDRAPER UTM300:42:18.425+15:38.205:41:08.195
4861213David BUCHLERELKO NVM300:42:19.566+15:39.306:17:34.347
487594Sean KARRECOLORADO SPRINGS COM300:42:22.736+15:42.505:32:33.533
4881121Ty WARDEVERGREEN COM300:42:23.773+15:43.506:12:07.428
489969Kevin HASLEYBELLEVUE WAM300:42:24.046+15:43.805:55:16.650
4901448Bahram AKRADICHANHASSEN MNM400:42:24.190+15:43.906:31:41.044
4911249John MAHONFORT COLLINS COM500:42:26.421+15:46.206:32:02.930
492391Jon ALBYEVERGREEN COM300:42:27.907+15:47.605:55:56.038
493569Scott NEWMANSANTA FE NMM400:42:28.636+15:48.406:27:53.704
494442Roger VILLMOWWOODLAND PARK COM400:42:28.974+15:48.705:56:01.713
4951325Dale PIERSONST. MARYS POINT MNM300:42:29.322+15:49.105:58:30.107
4961493Jason RANSDELLGLENDALE AZM300:42:29.751+15:49.506:02:47.210
497864Alan BENNETTDENVER COM200:42:29.990+15:49.705:52:41.096
4981497Kevin SILSBYCOLORADO SPRINGS COM400:42:31.941+15:51.706:32:01.006
4991051Zachary SCHATREDWOOD VALLEY CAM400:42:34.129+15:53.906:05:28.596
500747Shawn GILLISSALIDA COM400:42:39.618+15:59.406:25:12.634
5011270Colin CATELDENVER COM400:42:40.156+15:59.906:25:14.785
502511Joel NASHETTNEWINGTON CTM200:42:41.595+16:01.307:11:48.776
5031499Beau STARKLAFAYETTE COM400:42:42.898+16:02.606:02:52.170
504752Tagg ROGERSSEMMES ALM300:42:43.772+16:03.506:38:26.160
5051306Greg TURNERBROOMFIELD COM400:42:43.813+16:03.506:03:12.312
506810Robert SMITHHOUSTON TXM400:42:47.704+16:07.406:33:58.396
507546Kara DURLANDCOLORADO SPRINGS COSSF00:42:49.875+16:09.606:37:51.793
50826Rob BURGARDBOULDER COM500:42:50.283+16:10.005:01:20.829
509522Max HAGANEVERGREEN COM400:42:50.465+16:10.206:26:44.644
5101160James SNYDERWESTLAKE OHM400:42:53.483+16:13.206:39:13.620
5111216David CATONGREENSBORO NCM300:42:53.543+16:13.307:12:31.504
5121472Thorne BUTLERPARK CITY UTM500:42:55.272+16:15.006:25:49.979
5131377Greg CARLISLECOLORADO SPRINGS COM500:42:55.587+16:15.306:27:41.572
5141326John KOCHMAPLE GROVE MNM400:42:56.550+16:16.305:58:30.887
515788Sergio HERRERAVILLAGE OF PALMETTO BAY FLM300:42:56.797+16:16.507:28:20.110
516479Joey ROACALGARY AB, CANADAM300:42:59.576+16:19.306:21:47.902
517502Kevin HALLDRAPER UTM500:42:59.666+16:19.407:26:14.877
5181290Nicette QUINTEROORO VALLEY AZF400:42:59.862+16:19.605:55:49.399
519718Jon BOLTAXSALT LAKE CITY UTM400:43:00.310+16:20.006:06:52.004
520604Jay RAPSONPHOENIX AZM300:43:00.683+16:20.406:21:42.729
5211296Todd KENNEDYCARBONDALE COM300:43:01.191+16:20.905:44:36.530
522591Robert PIPERLAKE FOREST PARK WAM400:43:01.373+16:21.105:39:34.550
5231304Doug LAMATTBOISE IDM400:43:01.639+16:21.405:58:44.004
5241273Amy WOODBOULDER COF200:43:01.989+16:21.706:54:03.891
5251307John SPRANGERLAKEWOOD COM300:43:02.091+16:21.806:23:29.341
526647Jason DANIELSPHOENIX AZM300:43:02.211+16:21.907:03:33.827
5271055Lawson WILLARDSAN FRANCISCO CAM400:43:03.314+16:23.006:20:56.145
528756Mark KOENIGTORONTO ONT, CANADAM400:43:04.656+16:24.406:24:06.809
529936Brent BUSHOVERTON NVM400:43:04.763+16:24.506:47:02.175
5301432Scott MORGANSALT LAKE CITY UTM300:43:06.659+16:26.406:38:26.591
531158Mark QUISTHOLLAND MIM400:43:06.893+16:26.606:04:23.566
532952Barbie MILLERCOLUMBIA MOF400:43:07.411+16:27.107:26:00.187
533251Stuart EDGERLYSNOWMASS COM500:43:07.828+16:27.606:36:12.090
5341211David BICKHAMLONE TREE COM600:43:07.846+16:27.606:57:53.008
5351220Chris KARPOWICZBROADVIEW HEIGHTS OHM300:43:08.810+16:28.506:45:11.478
536213Aron MASONSAN MATEO CAM300:43:10.278+16:30.006:39:38.551
537414Kim KREBMANITOU SPRINGS COF400:43:11.073+16:30.806:20:06.188
538887Craig TERRYST. GEORGE UTM500:43:11.717+16:31.505:31:12.794
539406Zachary ADLERPORTLAND ORM300:43:15.376+16:35.106:48:47.014
5401447Elwyn OWEN*HIGHLANDS RANCH COM400:43:16.104+16:35.806:49:59.638
5411119Aron LANGLEYARVADA COM300:43:16.430+16:36.206:27:04.693
542222David CARNER*LOUISVILLE COM400:43:16.645+16:36.406:26:25.627
5431209Timothy SCHULTZLOVELAND COSSM00:43:18.532+16:38.306:33:44.062
5441094Jonathan ROMOCOLLEYVILLE TXM400:43:18.618+16:38.406:53:22.458
545831David SAMMETHSANTA FE NMM400:43:20.046+16:39.806:19:40.625
546668Patrick KLINELEESBURG VAM300:43:20.305+16:40.006:41:24.781
547544Steve CALDWELLMOUNTAIN GREEN UTM300:43:23.072+16:42.805:52:33.176
5481359Keith GRIMES*COLORADO SPRINGS COM500:43:24.443+16:44.206:49:25.868
549261Jamie CLEVELAND*SUNSET VALLEY TXM300:43:25.408+16:45.106:44:58.447
5501521Tim TRAVISEDEN PRAIRIE MNM500:43:25.926+16:45.706:40:15.079
551637Robert KOLBDILLON COM400:43:26.398+16:46.107:25:17.578
5521066Cal NESKEBOULDER COM300:43:26.550+16:46.306:30:05.039
553424Curtis LABOUNTYLANTZVILLE BC, CANADAM300:43:26.617+16:46.407:03:34.802
554210Brett GOETTSCOTTSDALE AZM400:43:27.682+16:47.406:06:08.400
555386Christine IRELANCOLORADO SPRINGS COF400:43:27.686+16:47.406:16:53.254
556682Joe DEIGHANBEVERLY HILLS MIM300:43:29.639+16:49.406:13:31.323
557807Thomas SINGLETONLITTLE ROCK ARM500:43:31.031+16:50.806:43:17.045
5581360Scott GIFFIN*LEADVILLE COM400:43:31.382+16:51.106:22:10.793
559776Mike BARTELSPAPILLION NEM400:43:32.340+16:52.106:04:34.128
560263Paul LAURSANTA FE NMM500:43:33.757+16:53.506:49:11.621
5611140Tim PATTENBOULDER COM400:43:34.390+16:54.106:43:19.023
5621480Bob GROSSBOISE IDM400:43:36.791+16:56.506:46:32.222
563949Tom POLITZERGOLDEN COM500:43:38.685+16:58.406:29:01.283
564206Rachel FARRETTPARKER COF400:43:38.885+16:58.605:58:29.489
565767Dave EDNEYLIVERMORE CAM400:43:38.895+16:58.606:10:32.238
5661287Craig WESTWOODLITTLETON COM400:43:39.383+16:59.106:28:08.189
567514Lee CANNONPLEASANTON CAM600:43:40.619+17:00.406:37:39.290
5681117Voytek BOBAKLITTLETON COM400:43:41.636+17:01.406:41:10.119
5691411Rich INGERSOLLRALEIGH NCM400:43:41.697+17:01.407:26:49.978
57022Paul GORBOLDAVON COM300:43:43.548+17:03.304:56:26.176
5711077Dale EARIXSONARVADA COM400:43:43.973+17:03.706:54:44.493
572400Karen ORTIZSANTA FE NMF300:43:44.907+17:04.606:47:35.243
573948Tom CAMPBELLLAKEWOOD COM400:43:45.699+17:05.406:29:18.684
5741157Jeff SURNOWWEST BLOOMFIELD MIM500:43:45.911+17:05.606:35:25.654
5751070Erlinda STAFFORDLITTLETON COF400:43:48.190+17:07.906:38:41.925
5761332Michael HOBLETMORROW OHM300:43:48.230+17:08.006:05:38.800
577470Will WILLIAMSHOUSTON TXM400:43:49.354+17:09.107:09:02.618
5781494Wade SCHOECHBOULDER COM400:43:50.252+17:10.006:17:22.3
5791527Charles VAN ATTAGOLDEN COM400:43:51.704+17:11.406:12:58.798
580784John LAKOSKIAUSTIN TXM300:43:52.690+17:12.406:42:01.834
581426Ken OLSONNANAIMO BC, CANADAM400:43:52.837+17:12.605:59:36.296
582327John OBRIENLONG LAKE MNM400:43:52.966+17:12.707:36:00.370
5831327Brad STRATTONEDEN PRARIE MNM400:43:54.329+17:14.106:25:41.972
5841059Eric BROOKSPOTOMAC MDM300:43:54.810+17:14.506:25:57.844
5851223Matt POWELKAFORT COLLINS COM300:43:55.243+17:15.006:33:15.354
586307David LEELEADVILLE COM300:43:56.524+17:16.306:10:07.025
587852Ozzie RAMOSNEW YORK NYM400:43:56.935+17:16.706:21:45.488
5881057Todd GEEROMAHA NEM400:43:56.991+17:16.706:02:31.322
589480Larry SWANSONLOVES PARK ILM500:43:57.690+17:17.406:41:27.525
590843Stanley PRUTZBATON ROUGE LAM500:43:58.621+17:18.406:10:04.187
591227Charles SNYDERDOWNERS GROVE ILM600:43:59.945+17:19.706:05:14.344
592772Greg NOVACEKLIVERMORE CAM400:43:59.956+17:19.706:53:01.560
5931222Nathan TURNERAUSTIN TXM400:44:01.272+17:21.006:41:52.227
5941555Evan MILLERCLEVELAND OHM200:44:01.724+17:21.506:55:10.484
595493 Steve JONESFARMINGTON NMM500:44:07.692+17:27.406:49:40.134
596681John SOTIRBEVERLY HILLS MIM500:44:08.598+17:28.306:17:58.051
5971491Derick LEVYLITTLETON COM400:44:08.920+17:28.706:52:17.178
598825Kimberly CHANCEDALLAS TXF400:44:10.324+17:30.107:10:17.722
599485Robert COREALEHOUSTON HIM500:44:10.433+17:30.206:04:13.556
6001007Frank TONEYLITTELTON COM400:44:10.999+17:30.707:05:57.892
601459Ralph MILLERWINDERMERE FLM500:44:12.175+17:31.906:22:01.665
602557Art FLEMINGROCHESTER HILLS MIM600:44:13.398+17:33.106:36:38.093
603977John MATHIASOLATHE KSM500:44:13.563+17:33.306:21:51.902
6041486Michael COWLEYPHOENIX AZM400:44:19.013+17:38.707:10:05.660
6051285Mark CHAPINRIVER FALLS WIM300:44:19.669+17:39.406:47:05.268
6061281Brad MULLENSALT LAKE CITY UTM500:44:24.265+17:44.006:31:01.899
607343Ryan RIMBERTLAS VEGAS NVM300:44:24.512+17:44.206:56:19.214
608331Grant BRAASCHST. LOUIS PARK MNM300:44:24.553+17:44.306:29:46.119
609252Kevan MILLSTEINPEPPER PIKE OHM400:44:25.127+17:44.906:55:13.397
6101196Matthew CRANESPOKANE WAM300:44:25.637+17:45.406:16:36.891
611410Donnie MCGEANKIHEI HIM500:44:28.070+17:47.806:47:06.395
612242Judy ALLENSALT LAKE CITY UTF500:44:28.369+17:48.106:56:24.274
613791Almo CATTANIMIAMI FLM300:44:29.029+17:48.807:17:07.057
614475Blair CLARKHAILEY IDM500:44:29.342+17:49.106:01:04.939
615296Jamie PETERSLEADVILLE COM300:44:30.957+17:50.706:18:56.853
6161005Brandon FISHOREM UTM300:44:31.153+17:50.906:59:15.255
617255Jack CHRISTIAN*HAMMON OKM500:44:31.620+17:51.406:59:06.312
6181208Stephen HOWARDAUSTIN TXM400:44:33.148+17:52.906:29:33.268
6191394Thomas MAINOSAN DIEGO CAM400:44:33.455+17:53.206:55:24.254
620533Jim HEIDELBERGCOLORADO SPRINGS COM500:44:33.719+17:53.505:34:19.150
6211237Ken ZYLSTRA IIIPRIOR LAKE MNM400:44:33.883+17:53.606:36:16.902
6221489Darryl LAWRENCEARVADA COM400:44:34.285+17:54.006:47:10.346
623623Edmund WEBECKELEHI UTM300:44:34.988+17:54.706:06:43.863
624269Timothy BISHOP*DENVER COM300:44:35.559+17:55.306:34:25.778
625561Bianne MARSHALLLONGMONT COF200:44:35.625+17:55.407:02:29.010
626683Ricardo ZUBIETAMAPLEWOOD NJM300:44:35.655+17:55.406:48:31.322
627282Bob SEEBOHAR*LITTLETON COM300:44:36.984+17:56.706:43:54.658
628304Charles BYBEE*DENVER COM400:44:39.010+17:58.706:41:32.432
629549Gary ALBERTASPEN COM600:44:39.563+17:59.306:50:26.815
6301266Clint BALLGOLDEN COM400:44:39.565+17:59.305:49:01.615
6311068Kevin RATCLIFFGUNNISON COSSM00:44:41.430+18:01.207:02:31.440
632412Bill DARRAHKULA HIM400:44:41.943+18:01.706:16:50.329
633352Stuart ROSEOURBAN SOUTH AFRICAM300:44:42.311+18:02.006:15:43.127
634525Michael VLAMISLOS GATOS CAM400:44:42.781+18:02.507:02:31.963
635303Drew DOKKENLEADVILLE COM200:44:43.160+18:02.906:43:29.001
636739Lance PALUMBODENVER COSSM00:44:43.943+18:03.706:01:09.946
637820James DAVISAMHERST NHM300:44:46.135+18:05.907:00:06.550
638449Jan KRISKAMOUNT AIRY NCM400:44:46.304+18:06.006:16:53.258
639301Roger HEDLUND*TABERNASH COM500:44:47.271+18:07.006:03:41.448
6401190Brandon MELOTTWARR ACRES OKM200:44:47.347+18:07.106:01:33.482
6411189Jc JONESARDMORE OKM500:44:48.144+18:07.906:11:56.760
6421300Gary WERNINGCARVER MNM500:44:48.322+18:08.106:49:00.780
6431035Thori WOLFEWASHINGTON DCM400:44:48.420+18:08.206:19:21.935
6441087Andre ODENDAALWILMETTE ILM400:44:49.166+18:08.906:10:17.541
645805Samuel WELLMANDURHAM NCM300:44:50.074+18:09.806:59:25.912
646928Tom FLOWERSMEDFORD ORM400:44:50.627+18:10.407:08:34.243
647702Mike AGUIARHILLSBOROUGH CAM400:44:50.897+18:10.606:22:01.577
648665Bobbi BENSMANBOULDER COF400:44:52.657+18:12.407:27:46.305
6491064John MILLONEASLEY SCM400:44:54.889+18:14.606:02:48.784
650523J. Mark BAIRDGOLDEN COM400:44:57.029+18:16.805:42:26.130
651797Collin HATCHERST. LOUIS PARK MNM500:44:57.583+18:17.306:43:13.357
652849Josh TEPLITZKYDENVER COM300:44:58.026+18:17.805:59:45.270
6531276Les SCHAFERFREDERICK COM500:44:58.384+18:18.107:18:34.089
654223Bill FARRETT*PARKER COM300:44:59.527+18:19.306:55:40.974
655644Andrew FORBESBOISE IDM500:45:01.178+18:20.906:15:43.514
6561309Mike QUIGLEYPITTSBURGH PAM300:45:02.038+18:21.806:56:28.556
6571052Jon MCNEILLWELLESLEY MAM400:45:03.343+18:23.106:56:52.568
658262Jeni WINDORSKILEADVILLE COF300:45:04.604+18:24.306:32:11.942
659937Lowell PETERSENBLAIR NEM500:45:05.888+18:25.605:47:24.297
6601323Carey MANSONMOUND MNM500:45:06.002+18:25.706:44:12.596
6611161John SHUMAKERPRESCOTT AZM300:45:07.055+18:26.805:52:33.921
662326William WENMARKLEADVILLE COM600:45:07.395+18:27.106:59:26.945
663541Greg SCOTHERNLAYTON UTM300:45:07.880+18:27.606:56:58.039
664679Steve RILEYLEESBURG VAM400:45:07.940+18:27.706:42:57.549
665725Mike EBHERTWOODLAND PARK COM400:45:08.100+18:27.806:17:46.535
666309Montgomery WILLSONLEADVILLE COM200:45:08.203+18:27.906:41:48.250
667662Mark AASMUNDSTADFLAGSTAFF AZM300:45:08.277+18:28.004:54:39.745
668846Morris WHEELERBEACHWOOD OHM400:45:09.229+18:29.007:10:34.070
6691244Greg FRENCHMT. CHARLESTON NVM400:45:11.285+18:31.006:15:36.597
6701470Douglas BLACKBURNAVON COM300:45:13.974+18:33.706:18:53.506
671724Stephen HUNTERST. PAUL MNM500:45:14.751+18:34.506:01:05.453
6721269Mimi MATHERBOULDER COF300:45:15.891+18:35.606:30:07.323
6731380Theresa PITMANWOODLAND PARK COF200:45:17.559+18:37.306:07:36.194
6741245Henry CLINTONLAS VEGAS NVM500:45:17.714+18:37.407:19:26.119
675555Lonnie VOGANHUNTSVILLE ALM500:45:19.729+18:39.507:18:52.557
6761384Kurt HELLWEGSPRINGFIELD MOM500:45:19.843+18:39.606:57:41.155
6771399Arlyn ASCHSAN DIEGO CAM400:45:25.136+18:44.906:59:05.451
678889Steve MOSSST. GEORGE UTM500:45:25.274+18:45.005:55:42.774
6791097Josh PEARSONGRAND JUNCTION COM300:45:26.316+18:46.006:43:46.882
6801178Lionel BONYSAINT GENES CHAMPANELLE FRANCESSM00:45:28.410+18:48.107:07:11.863
681771Lance EDNEYWRENTHAM MAM400:45:29.409+18:49.106:28:01.562
682545Brett TOLIVEROGDEN UTM300:45:30.589+18:50.306:07:51.953
6831118Jeremy LAYERWESTMINSTER COM300:45:30.644+18:50.407:02:55.187
684361Stephen WASSINGERPUEBLO COM400:45:31.542+18:51.306:23:29.502
685443Reid DELMANLONGMONT COM400:45:32.188+18:51.907:02:30.152
6861009Richard LABONVILLELITTLETON COM500:45:32.560+18:52.306:46:09.192
6871069Cyndi HOLLISTERLITTLETON COF400:45:33.096+18:52.806:27:54.8
6881217Craig MAROTZNEENAH WISSM00:45:34.309+18:54.006:33:29.364
689229Scott LEDBETTERGOLDEN COM400:45:34.513+18:54.206:40:13.824
690205Jason AMADORI*WINDERMERE FLM300:45:34.828+18:54.607:09:21.908
6911452Richard MURDOCKLAS CRUCES NMM300:45:35.653+18:55.406:18:50.982
692694Scott HUDSONHIGHLAND VILLAGE TXM500:45:36.660+18:56.406:35:52.734
693355Sam BLAIRMEMPHIS TNM500:45:38.168+18:57.907:17:47.222
694816John ROYLONG BEACH CAM400:45:39.634+18:59.406:28:28.106
695732Jason LINDERPARK CITY UTM300:45:40.280+19:00.005:53:10.872
696927Mark MCKIMAUSTIN TXSSM00:45:40.296+19:00.007:39:49.830
6971357Charles STONE IV *GOLDEN COM400:45:40.452+19:00.206:56:48.260
6981427Calvin HORNLAFAYETTE COM300:45:41.353+19:01.107:03:14.123
699374Bob WIECKST. LIBORY NEM300:45:41.454+19:01.207:18:16.429
7001046Matthew JONESCOOPERSTOWN NYM400:45:44.371+19:04.106:36:08.481
701609Derron TANNERDRAPER UTM300:45:45.681+19:05.407:03:47.819
702613Gary CAROLLOCOLORADO SPRINGS COM400:45:45.756+19:05.507:00:49.596
7031495Jason SCHUSTERGRAND ISLAND NEM300:45:47.939+19:07.706:46:28.691
704674Mike DERRICKCOLORADO SPRINGS COM400:45:48.479+19:08.206:26:46.560
705813Mike GRUBERENGLEWOOD COM300:45:50.292+19:10.006:58:55.530
706317Jeff GRIFFOHOMEWOOD CAM400:45:51.758+19:11.506:24:53.134
7071328Cathy BERGINHUGO MNF400:45:55.281+19:15.007:00:01.867
7081400Rick WINBERGDURANGO COM500:45:56.268+19:16.006:35:53.033
7091176Pierce NORTONMORGAN HILL CAM400:45:56.823+19:16.607:15:37.020
7101477Matthew FARLEYALBUQUERQUE NMM400:45:57.495+19:17.206:16:37.098
7111416Robert TRUJILLOHUMBLE TXM300:45:59.679+19:19.407:33:54.130
712560Kevin HUGHESWESTMINSTER COM400:46:00.220+19:20.006:40:26.009
7131235Martin PALACIOSDALLAS TXM400:46:00.813+19:20.506:55:39.487
7141043Jason KELLERNAMPA IDM300:46:02.367+19:22.106:11:57.300
715537Riley TUCKERAMERICAN FORK UTM200:46:03.789+19:23.507:09:16.346
716529Christopher BELLMOUNTAIN GREEN UTM300:46:04.316+19:24.006:35:55.991
7171202Timothy ACKERMANLONGMONT COM300:46:05.312+19:25.006:39:29.883
718340Paul FOLEYGOLDEN COM400:46:08.280+19:28.006:31:18.555
719346Adam PEMBERTONW. REDDING CTM400:46:09.855+19:29.606:42:53.864
720231Roxanne HALLLEADVILLE COF400:46:10.353+19:30.106:12:39.450
7211193Craig VAUGHNAMARILLO TXM400:46:12.056+19:31.806:07:47.568
722715Jason LAUSAN FRANCISCO CAM300:46:12.872+19:32.606:53:30.289
7231439Harlan SMITHSAVAGE MNM400:46:15.071+19:34.806:50:26.386
7241520Anthony SINYARDMORGAN HILL CAM200:46:15.130+19:34.906:15:44.976
725249Bob BAWN*BOULDER COM400:46:15.536+19:35.306:41:15.097
7261317Scott HENDRICKSLAKEWOOD COM500:46:15.809+19:35.506:13:10.524
7271434Michael STULTZMOUNTAINSIDE INM300:46:17.027+19:36.806:37:53.071
728347Chris PEMBERTONOAKLAND CAM300:46:20.584+19:40.306:08:33.936
729471Jenn DICEBOULDER COF300:46:21.357+19:41.106:37:45.877
7301382Bill BOUGHTONASPEN COM400:46:22.107+19:41.806:12:04.5
7311350Bob ANDREWSLA JOLLA CAM500:46:22.586+19:42.306:25:21.752
732769Heather STALLIONDUBLIN CAF400:46:25.650+19:45.406:53:50.695
733501Tamara GOEPPELWHITEHORSE YK, CANADAF300:46:31.044+19:50.805:45:17.617
734599Jeff PAFFENDORFASPEN COM400:46:31.803+19:51.506:06:46.027
7351339Brian KOZICKIST. LOIUS PARK MNM300:46:31.831+19:51.605:39:43.481
736774Jeff JOHNSTONOMAHA NEM400:46:36.375+19:56.106:19:52.772
7371082Jeff BROWNBOULDER COM500:46:37.409+19:57.106:48:57.698
738675Kathy DERRICKCOLORADO SPRINGS COF400:46:37.549+19:57.306:41:38.678
7391272Lorrie FULKERSONBOULDER COF500:46:38.471+19:58.207:07:16.874
740543Jeffrey HARRISONOGDEN UTM400:46:39.534+19:59.306:08:51.481
7411286Chip CHILSONASPEN COM500:46:39.598+19:59.306:24:29.688
7421342Grant HARRISONLOUISVILLE KYM400:46:39.646+19:59.407:36:55.324
7431379Lindsay HYMANCOLORADO SPRINGS COF200:46:42.063+20:01.806:18:11.349
744957Garret ROCKGOLDEN COM300:46:43.105+20:02.805:51:29.214
745278Bobby LEWIS*GREELEY COM300:46:43.932+20:03.707:20:51.240
746615Jeffrey SILLIKDENVER COM300:46:44.424+20:04.206:43:26.690
7471001Chris DAVISAUSTIN TXM300:46:47.248+20:07.007:32:15.002
748528Steve HUNTSANDY UTM400:46:48.360+20:08.106:03:52.937
749581Jeff TAYLORMILL VALLEY CAM400:46:49.344+20:09.105:40:10.993
7501102Jane FREDMANCOLORADO SPRINGS COF400:46:53.103+20:12.807:26:03.591
7511137James LAISPORTLAND ORM400:46:53.325+20:13.106:42:17.862
7521271Jo CAMPBELLLOVELAND COF400:46:54.102+20:13.806:23:51.579
7531090Clinton DORWARTCEDAR CREST NMM400:46:55.051+20:14.807:37:35.626
7541101Jeff PAPENFUSGREENVILLE SCM400:46:57.103+20:16.807:51:23.914
755795Al IVERSONHAMPTON MNM500:47:00.454+20:20.206:15:58.321
756396Ted EVANSEVERGREEN COM400:47:01.887+20:21.606:45:18.891
757940James MAASKECOUNCIL BLUFFS IAM400:47:03.196+20:22.906:58:28.425
758778Jim EASTONOMAHA NEM300:47:04.051+20:23.806:59:31.758
7591398Matthew ALLENDENVER COSSM00:47:04.146+20:23.906:35:56.928
760869John BELKINCRESTED BUTTE COM400:47:04.315+20:24.006:20:42.840
7611519Mike SINYARDMORGAN HILL CAM500:47:05.604+20:25.307:02:08.760
762592Becky LAMPITLAS VEGAS NVF400:47:06.007+20:25.707:12:21.160
763218Robby KETCHELL*FORT COLLINS COM200:47:06.189+20:25.906:38:23.114
764853Scott HOELSCHERPORTLAND ORM400:47:06.688+20:26.406:35:56.404
765722Rebecca SAUBERAPPLE VALLEY MNF300:47:09.703+20:29.406:42:07.999
766878Justin MACEOOLTEWAH TNM300:47:11.559+20:31.305:49:30.944
7671302Roberts ADAMSBOISE IDM500:47:14.772+20:34.506:09:24.901
768253James BLEAKLEYFORT COLLINS COSSM00:47:16.124+20:35.906:30:02.837
769275Maria PEREZHIGHLANDS RANCH COF400:47:17.886+20:37.606:58:21.866
7701238David MAZEIKAWASHINGTON DCM200:47:19.568+20:39.306:58:29.641
771845Bill STRAWTUCSON AZM500:47:19.938+20:39.707:15:24.102
7721093Chad RATHBONERICHMOND VAM300:47:22.727+20:42.506:20:11.354
7731292Jim OLANDERSTRONGSVILLE OHM400:47:23.417+20:43.206:32:55.462
7741210Barbara SCHULTZLOVELAND COF400:47:24.314+20:44.006:42:19.860
775916Christopher PULICKROWLEY MAM300:47:26.536+20:46.307:54:02.825
776200Riley FRAZIERHIGHLAND UTM400:47:27.027+20:46.806:14:17.762
7771280Eric ELYEVERGREEN COM500:47:27.681+20:47.406:07:43.196
778425Bill MCMILLANNANAIMO BC, CANADAM400:47:31.445+20:51.205:46:27.181
7791478Aaron FOREMANAUSTIN TXM400:47:31.522+20:51.306:39:54.287
780768Keith EDNEYDUBLIN CAM400:47:35.988+20:55.706:54:52.877
781271James ORLET*BUENA VISTA COM300:47:36.479+20:56.207:46:25.321
782706Gary BEHLENBOULDER COM500:47:37.463+20:57.207:17:04.787
783344Andy PEMBERTONBOULDER COM400:47:38.919+20:58.706:08:04.237
784461Manny OTEROWINTER GARDEN FLM300:47:39.983+20:59.707:22:14.384
7851314Jose ZUNIGAWALTERLOO IAM300:47:40.937+21:00.706:01:10.218
7861443Erick WHITTIERLAKEWOOD COM400:47:41.154+21:00.906:42:31.945
7871340Jason KOZICKIGREEN BAY WIM300:47:45.715+21:05.406:02:35.510
788230Mick DONOFFLAGUNA BEACH CAM600:47:45.774+21:05.506:53:32.463
7891251Justin MILLERFORT COLLINS COM300:47:46.034+21:05.806:52:42.095
790935Bethany ELSONPARK CITY UTF300:47:46.309+21:06.006:23:42.423
791968Tommy ROBLESSEAL BEACH CAM400:47:46.732+21:06.506:11:24.404
7921181Brandon GAUDRESSAN DIEGO CAM300:47:46.833+21:06.606:39:10.275
793285Corey HANSON*BELLVUE COSSM00:47:49.046+21:08.805:58:57.906
7941199Joe RUSKGRAND JUNCTION COM600:47:49.223+21:09.007:11:29.500
7951167Kurt HOLTEAGLE COM400:47:49.241+21:09.007:18:06.003
7961422Eric CRACRAFTHELOTES TXM300:47:49.655+21:09.406:53:23.205
7971124Bob SCANLONWAYZATA MNM500:47:49.814+21:09.506:14:24.531
7981247Craig WOJCIECHOWSKILAS VEGAS NVM300:47:50.561+21:10.307:19:23.801
799760Zella BROCKBANKCASTLE ROCK COM400:47:50.763+21:10.506:55:23.899
8001252Cathy ROTMANFORT COLLINS COF400:47:53.982+21:13.706:13:08.355
8011014David BEDNARFLAGSTAFF AZM400:47:56.660+21:16.406:55:02.340
8021445Donielle NYLANDFLOWER MOUND TXF300:47:56.841+21:16.607:18:11.676
803520Jeff AMSDENCOLORADO SPRINGS COM300:47:56.854+21:16.606:35:48.468
804918Michael DEIGNANCOLORADO SPRINGS COM400:47:57.089+21:16.807:04:31.665
8051433Patrick HENRYFAIRFAX VAM400:47:57.386+21:17.107:05:50.006
8061275Jeff ARMSTRONGCENTENNIAL COM400:47:57.418+21:17.207:11:42.928
8071205Mike DAVISAUSTIN TXM300:47:57.561+21:17.306:40:16.338
8081123Whit SMITHENGLEWOOD COM400:48:00.398+21:20.106:21:17.987
809963Russell BUSCHERTEAGLE COM500:48:06.363+21:26.107:49:28.335
810903Tom HIMMELRICHATASCADERO CAM300:48:09.144+21:28.907:25:20.592
811446Peter VAJDAFERNDALE MIM400:48:09.412+21:29.106:11:54.252
8121418Mark COLESPRING HILL KSM300:48:12.849+21:32.605:55:09.207
8131042Ron CASTIALIVERMORE CAM400:48:14.321+21:34.105:33:27.768
814294Derrick HUNERLEADVILLE COM200:48:14.423+21:34.207:09:18.687
8151419Benjamin JOHNSONMINNETONKA MNM300:48:16.191+21:35.907:30:04.783
816780James GRACEYMILL VALLEY CAM300:48:16.342+21:36.106:53:07.540
817765Steven BLACKMANPITMAN NJM200:48:17.063+21:36.805:44:08.329
818430Adam WOODVANCOUVER BC, CANADAM300:48:18.558+21:38.307:24:17.054
8191291Jason FOACENTENNIAL COM300:48:20.920+21:40.706:29:34.086
8201526Alison WATTLONGMONT COF500:48:28.520+21:48.307:50:13.178
821405Jay ADLERCOLORADO SPRINGS COM500:48:29.253+21:49.006:29:51.945
822460Laurie BRANDTMONTROSE COF400:48:33.948+21:53.706:14:18.577
823322Matthew LIEVIEWCOLORADO SPRINGS COM300:48:35.897+21:55.606:19:32.835
824775Corbett MORTENSENGILBERT AZM400:48:37.250+21:57.006:46:10.632
825700Kate PRUSACKSANTA FE NMF500:48:37.989+21:57.707:16:51.698
826607Brandon BANKSDRAPER UTM300:48:38.007+21:57.707:29:55.288
8271225Timothy STAMPMARION IAM500:48:38.835+21:58.606:33:08.912
8281127David TORRESARVADA COM400:48:43.157+22:02.907:20:53.179
8291336Julie CONNERLAS VEGAS NVF300:48:43.813+22:03.506:45:22.325
830512Jeffrey LEENHOUTSMARTINEZ CAM400:48:44.097+22:03.806:14:35.349
831687Julee PLUMMERMESA AZF300:48:44.392+22:04.106:59:09.080
832781Craig DALTONSAN FRANCISCO CAM300:48:44.792+22:04.506:19:06.339
8331413Robert TUMAPRIOR LAKE MNM300:48:48.372+22:08.107:17:06.319
8341236Stephen HARDYDALLAS TXM300:48:52.486+22:12.205:33:06.547
835794Patti SCHMIDT-IVERSONHAMPTON MNF300:48:58.226+22:18.006:41:12.786
836974Jason KLEWENOCOLUMBIA MOM300:48:59.779+22:19.506:34:28.040
8371446Jack APPLEHOUSTON TXM500:49:04.466+22:24.206:59:50.389
838676Chas RYANANNANDALE VAM400:49:05.477+22:25.206:47:50.444
839671Jeff JARACZESKIGREAT FALLS MTM400:49:07.343+22:27.107:07:08.912
8401022Don DALYLEES SUMMIT MOSSM00:49:08.871+22:28.607:36:28.262
841677Kathleen VEDOCKCOLORADO SPRINGS COF300:49:09.288+22:29.007:14:26.422
8421134Matthew ENGENBRIARWOOD NDM400:49:09.680+22:29.406:41:36.801
843298Christy LINDHLEADVILLE COF200:49:11.337+22:31.107:13:23.533
844888Paul KARLSSONGOLDEN COM400:49:13.581+22:33.306:49:52.329
8451138Steve WENZELFARGO NDM400:49:14.572+22:34.306:36:56.967
846324Thomas KARRENALPINE UTM300:49:14.926+22:34.706:42:17.822
8471164Deanna GRECOLITTLETON COF300:49:15.759+22:35.506:41:44.936
8481353Adam BRATESBUFFALO NYM200:49:17.049+22:36.807:06:45.232
849503Ted WARMBOULDER COM400:49:18.423+22:38.206:39:29.750
8501455Drake RYMANMAPLE GROVE MNM400:49:20.321+22:40.107:09:35.450
851714Shawn LYONSMITHBOISE IDM400:49:22.012+22:41.707:21:39.572
8521426Geoffrey CLARKNORTH PLAINFIELD NJM400:49:23.208+22:42.906:58:43.111
8531131Annemarie WALLDUXBURY MAF200:49:24.145+22:43.907:18:20.079
8541170James VANNESSCRESTED BUTTE COM600:49:24.339+22:44.107:03:45.750
855505Tom TURNEYMONUMENT COM400:49:24.781+22:44.506:20:00.921
8561485Doug KAUFFMANFRISCO TXM400:49:24.820+22:44.607:17:43.947
8571288Michael ROSSIMISSOULA MTM400:49:25.889+22:45.606:32:46.343
858299Earl WALKERLEADVILLE COM400:49:26.201+22:45.907:21:57.450
8591152Bill BLANKENSHIPSANTA FE NMM500:49:28.131+22:47.906:57:48.110
860602Andy FISCHERSCOTTSDALE AZM400:49:30.722+22:50.507:16:11.117
861530Ben WALLACEOGDEN UTM300:49:31.023+22:50.806:59:36.013
862871Paul BOSWORTHSPEARFISH SDM400:49:31.996+22:51.706:42:01.835
863413Eric PENCE^EAGLE COM400:49:35.470+22:55.206:53:36.451
864349Mark RAGOSAN DIEGO CAM400:49:39.151+22:58.907:12:29.099
8651313Scott RYMANSPOKANE WAM500:49:39.217+22:59.007:13:52.131
8661506Chris SKILLINGSHIGHLAND UTM400:49:39.713+22:59.407:33:39.025
867696Carl LINDSTROMLITTLE ROCK ARM500:49:40.044+22:59.806:31:46.562
8681104Bob REILLYMORGANVILLE NJSSM00:49:40.237+23:00.006:38:08.787
8691027Bryan ANDERSONDENVER COM400:49:44.058+23:03.806:48:27.061
870630Damian VESTCYPRESS TXM300:49:45.887+23:05.607:27:17.619
871950Dan DWYERGOLDEN COM500:49:46.764+23:06.506:35:43.208
872564Andrew HOLTONPINE COM400:49:47.655+23:07.406:24:19.472
8731311Aaron TOMASIFLAGSTAFF AZM400:49:48.951+23:08.706:34:11.014
874217Glade WEISERLOVELAND COM600:49:49.362+23:09.107:26:50.391
875695Russell STOVERFLOWER MOUND TXM500:49:50.334+23:10.106:57:22.761
8761159Jeremy TYSONARVADA COM300:49:56.478+23:16.207:04:20.731
8771253Mark ROTMANFORT COLLINS COM400:49:56.994+23:16.706:30:52.607
8781414Mike WILLNAPERVILLE ILM400:49:57.116+23:16.806:56:22.930
879798Reed MALVICKEDINA MNM200:49:59.067+23:18.806:11:24.029
8801267Elizabeth DOXEYLAKEWOOD COF300:49:59.081+23:18.807:43:18.803
881710Chad ALLREDPLEASANT GROVE UTM400:49:59.095+23:18.806:33:55.272
8821023Jeff CLAPPSALT LAKE CITY UTM500:50:02.786+23:22.506:07:42.317
8831038Jimmy DODSONROUGEMONT NCM300:50:02.847+23:22.607:35:24.926
884999Scott MILLERFLAGSTAFF AZM400:50:03.757+23:23.507:04:46.461
885885Tim FISHERALPINE UTM500:50:04.481+23:24.207:09:13.785
8861004Saul JACOBSONBROOKLYN NYM400:50:04.788+23:24.507:52:28.026
887712William ANDERSONBOISE IDM300:50:06.137+23:25.907:16:53.094
888558Matthew BULLOCKLEADVILLE COM400:50:08.144+23:27.905:59:09.074
889237Dean GREGORYWHEATRIDGE COM400:50:08.811+23:28.506:15:40.012
890815David BAKEREDWARDS COM400:50:10.626+23:30.406:28:48.976
8911471Michael BERGLAKEWOOD COM300:50:11.756+23:31.506:19:37.908
892500Thomas TETZCARCROSS YK, CANADAM400:50:15.719+23:35.505:52:18.798
893472Hill ABELLAUSTIN TXM500:50:17.509+23:37.206:19:22.967
894633Andrew COMBSMUNICE INM500:50:18.983+23:38.707:08:18.923
895764Ken OVERKDEPTFORD NJM400:50:20.303+23:40.006:42:48.523
896366Nathan CORBINGOLDEN COM300:50:20.614+23:40.306:35:30.005
897310Larry CHAPAPAYSON UTM400:50:21.080+23:40.807:01:08.774
8981378Jessica NILESCOLORADO SPRINGS COF200:50:23.708+23:43.407:04:07.830
899703Craig PARKERMILL VALLEY CAM400:50:23.819+23:43.606:37:19.056
9001513Travis BROWNDURANGO COM400:50:29.055+23:48.805:07:47.433
9011463Joe COLLINSLOUISVILLLE KYM400:50:29.478+23:49.206:46:25.953
9021165John GRECOLITTLETON COM500:50:33.832+23:53.607:01:57.643
903429Greg PAULALPINE UTM500:50:34.672+23:54.407:08:33.400
904432Rich BRADFIELDLOUISVILLE COM500:50:35.300+23:55.006:49:14.402
905393Tom MURPHYEVERGREEN COM300:50:36.567+23:56.306:48:48.264
906258Tim MILLER*LAKEWOOD COM300:50:40.240+24:00.006:38:27.803
907224John HILL*DENVER COM500:50:42.491+24:02.206:42:34.977
908973Jessica KOVARIKCOLUMBIA MOF200:50:42.810+24:02.507:38:06.034
909987Jeff DOERRSTANWOOD MIM500:50:46.813+24:06.505:43:05.425
910434Steve MILLERSCOTTS VALLEY CAM400:50:46.908+24:06.607:06:18.379
911526James STORMDURANGO COM400:50:47.909+24:07.607:07:23.838
912215Chris COHANCARBONDALE COM400:50:49.658+24:09.406:43:24.902
913225Jim GIBSONFLAGSTAFF AZM500:50:50.572+24:10.306:25:10.975
914515Randy BOWMANPLEASANTON CAM500:50:51.661+24:11.406:23:47.632
9151321Jarret KINDERMEMPHIS TNM300:50:51.825+24:11.606:56:48.138
916447Martin IZAKOVICIOWA CITY IAM300:50:53.620+24:13.406:59:03.556
917216James THOMPSONLEMONT ILM400:50:54.435+24:14.207:17:06.574
918323Scott VAN WAGONERALPINE UTM400:50:58.781+24:18.507:10:08.948
919276Brad CASONAUSTIN TXM300:51:03.407+24:23.106:43:20.499
920450Scott MCMILLIANSAN ANTONIO TXM400:51:06.613+24:26.306:29:47.739
921308Jason NEPPLEADVILLE COM300:51:09.238+24:29.007:13:46.264
922435Greg HERBERSGOLDEN COM500:51:09.333+24:29.107:19:25.750
9231406Joshua GRIFFINSALT LAKE CITY UTM300:51:09.441+24:29.206:07:30.876
924680Robert LARSONNOVI MIM500:51:10.294+24:30.006:33:11.186
925401Chris KUNSTADTSANTA FE NMM400:51:13.029+24:32.806:45:08.047
9261033Tad GLEASONALBUQUERQUE NMM400:51:15.449+24:35.207:31:18.146
927736Stuart MANNBOULDER COM400:51:16.591+24:36.306:25:58.402
9281347Barry CULPDUBLIN CAM400:51:17.951+24:37.706:11:30.558
929741Michael MCCENEYFORT COLLINS COM400:51:18.797+24:38.506:35:30.117
9301071Brian HOLLISTERLITTLETON COSSM00:51:18.812+24:38.505:59:38.4
9311528Jonathan TONERPEARLAND TXM300:51:19.184+24:38.906:02:17.986
932785Ivan SCHWENDTGLENBURN MEM300:51:22.485+24:42.206:12:00.694
933632Beth STEENPHOENIX AZF200:51:25.246+24:45.006:44:07.789
934883Dan DERUYTERSPOKANE WAM500:51:29.644+24:49.407:12:29.558
935408Erol ACKDOEPAIA HIM400:51:30.087+24:49.806:54:19.680
936135David MEISSNERSTEAMBOAT SPRINGS COM300:51:32.491+24:52.206:07:29.824
937286Fred COOGAN III *AUSTIN TXM400:51:32.720+24:52.507:37:50.252
938260Frederick LONGHONG KONGM400:51:34.695+24:54.406:43:16.278
939955Joanne MORROWGOLDEN COF400:51:35.194+24:54.906:52:27.277
940996Brad DOGGETTESTE PARK COM500:51:43.073+25:02.806:43:12.612
9411086Kirsten MCDANIELCAMPBELL CAF400:51:45.428+25:05.207:26:58.325
942248Fabiano NYENHUISSAO PAULO BRAZILSSM00:51:47.979+25:07.707:31:35.023
9431146Daniel SHAFFERMEMPHIS TNM200:51:48.337+25:08.106:14:39.710
944477Ryn KREIDLBOULDER COM300:51:51.317+25:11.107:43:57.452
945497Aaron PIDDEBLOOMINGTON MNM300:51:56.364+25:16.106:43:11.610
9461025Kathy GRAUERNIWOT COF500:51:57.530+25:17.307:58:18.464
947997Bill RUTHESTE PARK COM500:51:57.945+25:17.706:00:52.364
9481103Joseph GAGNONKATONAH NYM400:51:58.097+25:17.806:57:25.787
9491041Robert FISHERMONUMENT COM400:51:58.363+25:18.106:34:40.023
950851Kristin RILEY-LAZODENVER COF400:52:01.674+25:21.407:10:23.834
9511476Brian EASONMEMPHIS TNM300:52:03.072+25:22.806:40:49.732
952226John MAZZOLACEDAR CREST NMM500:52:04.169+25:23.907:48:23.722
9531331Ben MOONEYLITTLETON COSSM00:52:06.962+25:26.707:54:06.551
9541500Jeff STARKEYDENVER COM400:52:07.078+25:26.807:52:24.374
955787Richard LONGORONO MEM400:52:08.032+25:27.807:17:32.147
956886Stanley LARRABEEALPINE UTM500:52:12.166+25:31.906:39:57.052
957863David WICKLANDMARTINEZ CAM500:52:12.279+25:32.007:17:56.442
958369Dan GRUNNIGDENVER COM400:52:13.794+25:33.505:43:04.634
9591453Jean FRANCOISDENVER COM200:52:15.738+25:35.507:17:30.193
960584David WILSONKANSAS CITY MOM400:52:24.616+25:44.306:08:04.514
961319Blake APPLEBYASPEN COSSM00:52:24.807+25:44.507:17:03.412
9621147Ron PHILLEYOWENS CROSS ROADS ALM300:52:32.229+25:52.006:42:27.219
963576Kevin SPINELLILITTLETON COM400:52:33.927+25:53.706:30:07.910
964499Jeremy JOHNSONBURNSVILLE MNM300:52:34.931+25:54.707:44:49.084
965800Scott BIGELOWLINCOLN NEM400:52:37.828+25:57.606:03:34.273
966972Mark VAN SKIVERBOISE IDM500:52:41.525+26:01.307:49:32.732
9671451Todd STEVENSONDENVER COM300:52:44.693+26:04.407:18:17.336
9681030Phil SMITHCOLORADO SPRINGS COM400:52:47.685+26:07.407:21:02.339
969588Gerald HARTBUCYRUS KSM200:52:49.319+26:09.106:08:03.819
970650Perry BRAUNSCARSDALE NYM400:52:49.726+26:09.506:58:20.412
971562Mark FALLOONLINCOLN NEM400:52:51.507+26:11.206:50:44.638
972585Tim GIFFARDKANSAS CITY MOM400:52:52.466+26:12.207:51:49.679
973664Steven DONCHEYDESTIN FLM400:52:54.569+26:14.306:58:31.087
974469Hal RUSSELLOSCEOLA MOM600:52:57.421+26:17.207:15:04.338
975862Paul MARABITOCANYON TXM400:52:58.295+26:18.006:58:54.140
976759Michael PENDLETONALBUQUERQUE NMM400:52:59.916+26:19.607:49:26.531
977513Ron RELPLEASANTON CAM400:53:06.515+26:26.206:13:48.032
9781061Matthew CULPKANSAS CITY MOM300:53:17.664+26:37.406:41:58.686
9791221Marcus MANCINICLEVELAND OHM400:53:19.834+26:39.606:57:49.943
9801387James KUTZWASHINGTON DCM300:53:20.834+26:40.607:27:01.118
981220Rob GANGER*ENGLEWOOD COM400:53:27.102+26:46.806:45:04.628
982552Charles MABRYSPRINGFIELD MOM600:53:31.320+26:51.107:27:10.199
9831073Dan SONNESYNBROOMFIELD COM400:53:38.155+26:57.906:15:39.516
984631Bill STEENPHOENIX AZM500:53:44.307+27:04.006:54:39.894
9851525Greg DEIGNANMIDLOTHIAN VAM300:53:46.889+27:06.607:19:14.297
986701Randy SILVAALBUQUERQUE NMM500:53:58.904+27:18.607:19:19.828
987420Mike ROMANODENVER COM500:54:07.948+27:27.707:49:24.495
988496Peter SPENCERPLYMOUTH MNM300:54:12.114+27:31.807:41:04.709
9891423Ray WARDARLINGTON TXM500:54:12.370+27:32.106:46:36.312
9901435Kyle JOHNSONSHAKOPEE MNM400:54:28.515+27:48.207:38:09.164
9911248John HANKINSNEWBURY PARK CAM400:54:38.105+27:57.807:12:55.002
992463Lori GABRERTSARASOTA FLF400:54:44.581+28:04.307:51:08.310
9931329Joshua HOBLETNORTH LIMA OHM300:54:49.139+28:08.907:35:43.710
994819Kimberly LEVINASPEN COF400:54:56.784+28:16.507:07:03.775
995836Bill MCDOUGALLBOISE IDM400:55:12.503+28:32.206:30:00.784
996837Henry THOMPSONBOISE IDM400:55:18.367+28:38.106:30:06.445
9971299Brad PRESCOTTPRESCOTT AZM200:55:21.434+28:41.207:26:53.661
9981262Brandon HOLTONGRAND CANYON AZM300:55:26.655+28:46.406:09:23.518
999364Chris BRYCETORONTO ONT, CANADAM300:55:26.706+28:46.407:06:25.006
10001185Ron SMITHDENVER COM500:55:30.252+28:50.008:01:20.033
10011462Gary MYERSGOLDEN COM600:55:43.481+29:03.207:09:48.984
10021438Thomas PETRUSFAIRFAX VAM300:55:45.065+29:04.807:53:46.403
1003651Nate REXFAIRFILED CTM300:55:51.253+29:11.007:16:47.500
10041320Lance POPECHATTANOOGA TNM300:55:53.751+29:13.506:38:14.465
1005208Eric PRINGLEBOULDER COM400:56:05.300+29:25.006:55:14.230
1006967Don CUNNANELONG BEACH CAM400:56:05.404+29:25.107:16:46.103
1007697Bryan MAHANCOLORADO SPRINGS COM500:56:09.791+29:29.507:18:40.901
1008708Paul ATKINSONAMERICAN FORK UTM300:56:09.848+29:29.607:32:16.734
10091016Todd MACCAGNANAURORA COM400:56:16.371+29:36.107:12:49.087
10101257Steve BUSSEYLITTLETON COM400:56:16.704+29:36.408:00:02.348
1011542Shane OSGUTHORPEOGDEN UTM400:56:17.375+29:37.107:20:45.241
1012925Grace RAGLANDHUNTSVILLE ALF400:56:24.212+29:43.907:36:27.836
1013567Beverly SMITHVAIL COF400:56:25.784+29:45.507:22:19.134
1014494Kent SMITHEDINA MNM300:56:32.390+29:52.106:22:41.288
1015652Michael WEINSTEINSCARSDALE NYM500:56:35.058+29:54.807:47:36.825
1016786Emmy MONAHANHAMPDEN MEF400:56:43.073+30:02.807:13:57.404
10171393Chris LLOYD*DENVER COM400:56:43.391+30:03.107:41:08.148
101858Rick MCDONALDDENVER COM400:57:00.743+30:20.505:43:22.157
10191142Bob THEODOREWOODRIDGE ILM500:57:07.054+30:26.807:33:03.089
1020750Kevin SUGGSMOBILE ALM300:57:29.136+30:48.906:35:23.065
1021986John DAMINGLUXEMBURG WIM400:57:37.270+30:57.007:55:56.612
1022657Doyce JOHNSONGROVETOWN GAM500:57:43.520+31:03.307:07:23.208
1023811Larry LOBBHOUSTON TXM400:57:52.283+31:12.007:57:29.639
10241180Christopher TREVELISEAUSTIN TXM300:58:05.450+31:25.207:18:12.446
1025672Jesse TIBBETTSDENVER COM300:58:08.368+31:28.107:07:11.507
1026554David SUMIDAKANEOHE HIM400:58:11.953+31:31.706:53:17.501
1027373Curt PREWITTBLACKHAWK COM400:58:24.582+31:44.307:15:53.731
10281401James MUNAFOELIZABETH COM400:58:27.303+31:47.007:08:29.922
10291450Jason FRANCISSCOTTSDALE AZM300:58:39.198+31:58.907:54:24.553
10301466Jay GUYOTTUCSON AZM500:58:48.091+32:07.806:10:39.708
1031356Jason TEGGATZCEDAR RAPIDS IAM400:58:48.992+32:08.707:56:45.572
10321129Doug KRUESIDENVER COM500:58:50.628+32:10.407:34:59.269
1033947Ed WOLPHGOLDEN COM600:59:18.333+32:38.107:37:27.894
10341409Tim WILLIAMSTEMPE AZM500:59:45.122+33:04.907:41:51.068
1035898Paul MEYERMANNCEDAR FALLS IAM500:59:47.782+33:07.507:36:33.789
1036926Steven HALLALLEN TXM400:59:56.513+33:16.207:41:33.864
10371628 BROWN & JOHNSONBob Brown, Robin JohnsonTAN01:00:01.046+33:20.807:23:19.991
10381289Andrea SKALSKYMISSOULA MTF301:00:15.868+33:35.606:54:12.348
10391322Susan WILLIAMSMEMPHIS TNF401:00:19.136+33:38.907:54:23.257
1040848Ted GUTSHALLDENVER COM401:00:43.144+34:02.906:43:36.554
10411240David PRODORUTTIBLUE BELL PAM501:00:46.670+34:06.407:00:46.574
1042723Joseph WILSONRANCHO MIRAGE CAM401:01:21.796+34:41.506:45:02.813
10431389Lance MILLERBRECKENRIDGE COM401:01:32.269+34:52.007:11:49.123
1044721Michael HUDSONWHITEFISH MTM401:01:34.633+34:54.407:35:05.715
10451096Norman HARRISASPEN COM401:01:36.822+34:56.607:01:50.780
1046498Morison HALLEAGON MNM301:01:48.395+35:08.106:31:55.212
1047484Rob HEATHERSUNNYVALE CAM501:01:53.641+35:13.407:45:28.509
10481145Jeff BOYDCORDOVA TNM301:02:01.196+35:20.907:18:48.508
10491230Mark FLANAGANLAKEWOOD COM401:02:05.514+35:25.206:32:24.704
1050826Bob ANDERSONHOMER GLEN ILM501:02:06.107+35:25.807:34:43.714
1051970Nancy GRAYSCOTTSDALE AZF401:03:09.414+36:29.107:03:58.611
10521091Michael LARSONCAMBRIDGE MAM501:03:49.330+37:09.107:56:18.281
1053920David CAMPBELLAUSTIN TXM401:05:15.133+38:34.906:49:25.564
10541346Jeff BLOMSOUTH LAKE TAHOE CAM301:05:16.110+38:35.807:36:47.235
1055409Thomas ARMSTRONGMAKAWAO HIM501:07:35.705+40:55.407:15:59.167
1056534James ELLIS IIIDENVER COM401:07:41.637+41:01.406:35:57.854
1057802Stan KIEFERBEND ORM501:09:32.263+42:52.007:29:25.299
10581132Steve CARTEROWENS CROSS ROADS ALM401:13:13.840+46:33.607:38:25.617
1059342Chris SIPESCONIFER COM401:25:38.966+58:58.707:05:56.789
1060782Amos SCHWARTZFARBAUSTIN TXM301:27:50.134+1:01:09.907:57:25.854
1061398Dave LINDENBERGGLENWOOD SPRINGS COM302:18:42.103+1:52:01.807:12:28.209